M I D A S
Marine Information and Data Acquisition System
Tripno 1025 of the Zeeleeuw from 2006-01-19 07:34:41 to 2006-01-19 16:23:26
Back to CruiseResearch ActivitiesStationsMapUnderway DataData graphs

EquipmentUnitsComment
TimeDGPSUTC
LatitudeDGPSDM.mWGS84
LongitudeDGPSDM.mWGS84
TemperatureSBE03/SBE38deg celciusITS90
ConductivitySBE21S/mITS90
SalinitySBE21 Practical Salinity Units
ChlorophylAChelsea fluorimeterg/lCalibrated in Aceton
Missing or incorrect values are displayed as -999
Sea surface data collected by the RV Zeeleeuw from 2006-01-19 07:34:12 to 2006-01-19 16:40:00
                                                                                    Next 1000 lines
Time Latitude Longitude Temperature Conductivity Salinity ChlorophylA
2006-01-19 07:34:22 51°13.599 2°56.097 -999 2.970401 30.820991 -1.219471
2006-01-19 07:34:27 51°13.599 2°56.097 -999 2.969987 30.818945 -1.219471
2006-01-19 07:34:32 51°13.599 2°56.097 -999 2.969057 30.808278 -1.219471
2006-01-19 07:34:37 51°13.599 2°56.097 -999 2.970298 30.824297 -1.219471
2006-01-19 07:34:42 51°13.599 2°56.097 -999 2.96947 30.814814 -1.219471
2006-01-19 07:34:47 51°13.599 2°56.097 -999 2.967505 30.793193 -1.219471
2006-01-19 07:34:52 51°13.599 2°56.097 -999 2.967505 30.793193 -1.219471
2006-01-19 07:34:57 51°13.599 2°56.097 -999 2.966885 30.786979 -1.219471
2006-01-19 07:35:02 51°13.599 2°56.098 -999 2.96885 30.810397 -1.219471
2006-01-19 07:35:07 51°13.599 2°56.098 -999 2.970815 30.836514 -1.219471
2006-01-19 07:35:12 51°13.599 2°56.097 -999 2.974228 30.878342 -1.219471
2006-01-19 07:35:17 51°13.599 2°56.097 -999 2.972883 30.862926 -1.219471
2006-01-19 07:35:22 51°13.599 2°56.098 -999 2.972883 30.862926 -1.219471
2006-01-19 07:35:27 51°13.599 2°56.097 -999 2.970091 30.828215 -1.219471
2006-01-19 07:35:32 51°13.599 2°56.097 -999 2.969884 30.820454 -1.219471
2006-01-19 07:35:37 51°13.599 2°56.097 -999 2.964609 30.753737 -1.219471
2006-01-19 07:35:42 51°13.599 2°56.097 -999 2.960162 30.701008 -1.219471
2006-01-19 07:35:47 51°13.599 2°56.097 -999 2.960162 30.701008 -1.219471
2006-01-19 07:35:52 51°13.599 2°56.097 -999 2.964299 30.748391 -1.219471
2006-01-19 07:35:57 51°13.599 2°56.097 -999 2.965437 30.75963 -1.219471
2006-01-19 07:36:02 51°13.599 2°56.098 -999 2.966161 30.768819 -1.219471
2006-01-19 07:36:07 51°13.599 2°56.098 -999 2.960576 30.703063 -1.185762
2006-01-19 07:36:12 51°13.597 2°56.097 -999 2.962748 30.72704 -1.219471
2006-01-19 07:36:17 51°13.597 2°56.098 -999 2.962748 30.72704 -1.219471
2006-01-19 07:36:22 51°13.598 2°56.097 -999 2.963161 30.729988 -1.219471
2006-01-19 07:36:27 51°13.599 2°56.097 -999 2.962024 30.716065 -1.219471
2006-01-19 07:36:32 51°13.599 2°56.097 -999 2.963265 30.730277 -1.219471
2006-01-19 07:36:37 51°13.599 2°56.096 -999 2.963368 30.731461 -1.219471
2006-01-19 07:36:42 51°13.599 2°56.095 -999 2.956646 30.655383 -1.219471
2006-01-19 07:36:47 51°13.599 2°56.093 -999 2.966781 30.775031 -1.219471
2006-01-19 07:36:52 51°13.6 2°56.091 -999 2.966781 30.775031 -1.219471
2006-01-19 07:36:57 51°13.601 2°56.089 -999 2.963058 30.73507 -1.219471
2006-01-19 07:37:02 51°13.602 2°56.086 -999 2.966471 30.77596 -1.219471
2006-01-19 07:37:06 51°13.603 2°56.084 -999 2.965023 30.758476 -1.219471
2006-01-19 07:37:13 51°13.604 2°56.08 -999 2.955508 30.649501 -1.219471
2006-01-19 07:37:17 51°13.605 2°56.077 -999 2.955508 30.649501 -1.219471
2006-01-19 07:37:22 51°13.606 2°56.074 -999 2.961507 30.720882 -1.219471
2006-01-19 07:37:26 51°13.607 2°56.071 -999 2.961403 30.722383 -1.219471
2006-01-19 07:37:32 51°13.608 2°56.066 -999 2.954681 30.645385 -1.152053
2006-01-19 07:37:37 51°13.61 2°56.061 -999 2.94165 30.478441 -1.118343
2006-01-19 07:37:42 51°13.612 2°56.057 -999 2.920449 30.19739 -1.118343
2006-01-19 07:37:47 51°13.613 2°56.052 -999 2.920449 30.19739 -1.118343
2006-01-19 07:37:52 51°13.615 2°56.047 -999 2.911659 30.078737 -1.084634
2006-01-19 07:37:57 51°13.617 2°56.042 -999 2.90866 30.034953 -1.084634
2006-01-19 07:38:02 51°13.618 2°56.036 -999 2.91259 30.077985 -1.084634
2006-01-19 07:38:07 51°13.62 2°56.031 -999 2.914141 30.095662 -1.084634
2006-01-19 07:38:12 51°13.622 2°56.026 -999 2.912693 30.080037 -1.084634
2006-01-19 07:38:17 51°13.623 2°56.021 -999 2.914658 30.109426 -1.084634
2006-01-19 07:38:22 51°13.625 2°56.015 -999 2.914658 30.109426 -1.084634
2006-01-19 07:38:26 51°13.626 2°56.01 -999 2.918484 30.16269 -1.084634
2006-01-19 07:38:32 51°13.628 2°56.002 -999 2.917657 30.162022 -1.084634
2006-01-19 07:38:37 51°13.631 2°55.994 -999 2.91683 30.16223 -1.118343
2006-01-19 07:38:42 51°13.633 2°55.986 -999 2.915693 30.156267 -1.118343
2006-01-19 07:38:46 51°13.635 2°55.979 -999 2.914245 30.148514 -1.118343
2006-01-19 07:38:52 51°13.639 2°55.968 -999 2.914245 30.148514 -1.118343
2006-01-19 07:38:57 51°13.642 2°55.959 -999 2.909385 30.100917 -1.118343
2006-01-19 07:39:02 51°13.645 2°55.949 -999 2.910005 30.117645 -1.118343
2006-01-19 07:39:07 51°13.648 2°55.938 -999 2.90742 30.095133 -1.118343
2006-01-19 07:39:12 51°13.652 2°55.928 -999 2.908868 30.120443 -1.118343
2006-01-19 07:39:17 51°13.655 2°55.917 -999 2.908868 30.120443 -1.118343
2006-01-19 07:39:22 51°13.659 2°55.906 -999 2.906076 30.093803 -1.118343
2006-01-19 07:39:27 51°13.662 2°55.895 -999 2.907213 30.113822 -1.152053
2006-01-19 07:39:32 51°13.666 2°55.884 -999 2.904215 30.088319 -1.118343
2006-01-19 07:39:37 51°13.67 2°55.872 -999 2.900389 30.051594 -1.152053
2006-01-19 07:39:42 51°13.673 2°55.861 -999 2.898631 30.037631 -1.118343
2006-01-19 07:39:47 51°13.676 2°55.85 -999 2.898631 30.037631 -1.118343
2006-01-19 07:39:52 51°13.679 2°55.839 -999 2.89708 30.026029 -1.152053
2006-01-19 07:39:57 51°13.682 2°55.829 -999 2.896666 30.029185 -1.152053
2006-01-19 07:40:02 51°13.684 2°55.819 -999 2.894908 30.013459 -1.084634
2006-01-19 07:40:07 51°13.686 2°55.809 -999 2.886222 29.916745 -1.017215
2006-01-19 07:40:12 51°13.688 2°55.799 -999 2.893874 30.006887 -0.949796
2006-01-19 07:40:17 51°13.69 2°55.79 -999 2.895736 30.029934 -0.949796
2006-01-19 07:40:22 51°13.691 2°55.782 -999 2.895736 30.029934 -0.949796
2006-01-19 07:40:27 51°13.693 2°55.774 -999 2.89677 30.04352 -0.916087
2006-01-19 07:40:32 51°13.694 2°55.767 -999 2.893047 30.002679 -0.916087
2006-01-19 07:40:37 51°13.695 2°55.761 -999 2.893668 30.011531 -0.916087
2006-01-19 07:40:42 51°13.695 2°55.756 -999 2.890876 29.979586 -0.949796
2006-01-19 07:40:47 51°13.696 2°55.753 -999 2.890876 29.979586 -0.949796
2006-01-19 07:40:52 51°13.696 2°55.753 -999 2.878467 29.837665 -0.949796
2006-01-19 07:40:57 51°13.697 2°55.753 -999 2.869988 29.743343 -0.983506
2006-01-19 07:41:02 51°13.699 2°55.754 -999 2.863991 29.675671 -0.983506
2006-01-19 07:41:07 51°13.7 2°55.755 -999 2.859855 29.629279 -0.983506
2006-01-19 07:41:12 51°13.701 2°55.756 -999 2.852307 29.542195 -0.983506
2006-01-19 07:41:17 51°13.703 2°55.758 -999 2.852307 29.542195 -0.983506
2006-01-19 07:41:22 51°13.706 2°55.759 -999 2.858097 29.607468 -0.983506
2006-01-19 07:41:27 51°13.708 2°55.761 -999 2.864611 29.68016 -0.983506
2006-01-19 07:41:32 51°13.711 2°55.762 -999 2.860578 29.632356 -0.983506
2006-01-19 07:41:37 51°13.713 2°55.763 -999 2.865852 29.691737 -1.017215
2006-01-19 07:41:42 51°13.715 2°55.763 -999 2.863887 29.666692 -1.017215
2006-01-19 07:41:47 51°13.716 2°55.763 -999 2.863887 29.666692 -1.017215
2006-01-19 07:41:52 51°13.716 2°55.763 -999 2.866576 29.698273 -1.017215
2006-01-19 07:41:57 51°13.716 2°55.762 -999 2.85758 29.594648 -1.017215
2006-01-19 07:42:02 51°13.716 2°55.761 -999 2.863784 29.664644 -1.017215
2006-01-19 07:42:06 51°13.715 2°55.761 -999 2.864714 29.673543 -1.050924
2006-01-19 07:42:12 51°13.713 2°55.76 -999 2.862026 29.641969 -1.017215
2006-01-19 07:42:17 51°13.711 2°55.758 -999 2.864508 29.667716 -1.050924
2006-01-19 07:42:22 51°13.709 2°55.757 -999 2.864508 29.667716 -1.050924
2006-01-19 07:42:26 51°13.707 2°55.756 -999 2.860682 29.621428 -1.050924
2006-01-19 07:42:32 51°13.705 2°55.755 -999 2.863474 29.652444 -1.050924
2006-01-19 07:42:38 51°13.704 2°55.754 -999 2.859855 29.610254 -1.050924
2006-01-19 07:42:42 51°13.703 2°55.753 -999 2.862233 29.637409 -1.050924
2006-01-19 07:42:47 51°13.704 2°55.753 -999 2.862233 29.637409 -1.050924
2006-01-19 07:42:52 51°13.704 2°55.752 -999 2.859855 29.611118 -1.050924
2006-01-19 07:42:57 51°13.706 2°55.751 -999 2.857683 29.588054 -1.050924
2006-01-19 07:43:02 51°13.708 2°55.75 -999 2.859234 29.606627 -1.084634
2006-01-19 07:43:07 51°13.71 2°55.748 -999 2.866886 29.696615 -1.084634
2006-01-19 07:43:12 51°13.713 2°55.746 -999 2.871849 29.754191 -1.084634
2006-01-19 07:43:17 51°13.716 2°55.743 -999 2.871849 29.754191 -1.084634
2006-01-19 07:43:22 51°13.719 2°55.739 -999 2.881362 29.862923 -1.084634
2006-01-19 07:43:27 51°13.723 2°55.736 -999 2.88281 29.879474 -1.084634
2006-01-19 07:43:32 51°13.726 2°55.731 -999 2.885395 29.909032 -1.084634
2006-01-19 07:43:37 51°13.731 2°55.726 -999 2.879087 29.836046 -1.084634
2006-01-19 07:43:42 51°13.735 2°55.72 -999 2.86244 29.649289 -1.084634
2006-01-19 07:43:47 51°13.74 2°55.715 -999 2.817566 29.144083 -1.084634
2006-01-19 07:43:52 51°13.745 2°55.708 -999 2.817566 29.144083 -1.084634
2006-01-19 07:43:57 51°13.751 2°55.702 -999 2.775799 28.675951 -1.084634
2006-01-19 07:44:02 51°13.756 2°55.695 -999 2.749851 28.386668 -1.118343
2006-01-19 07:44:07 51°13.762 2°55.689 -999 2.733208 28.200856 -1.084634
2006-01-19 07:44:12 51°13.768 2°55.682 -999 2.724835 28.106586 -1.118343
2006-01-19 07:44:17 51°13.775 2°55.677 -999 2.723801 28.094849 -1.084634
2006-01-19 07:44:22 51°13.782 2°55.672 -999 2.723801 28.094849 -1.084634
2006-01-19 07:44:27 51°13.788 2°55.667 -999 2.722871 28.083466 -1.084634
2006-01-19 07:44:32 51°13.796 2°55.662 -999 2.72163 28.070204 -1.084634
2006-01-19 07:44:37 51°13.803 2°55.657 -999 2.716152 28.008833 -1.084634
2006-01-19 07:44:42 51°13.81 2°55.652 -999 2.707882 27.914995 -1.084634
2006-01-19 07:44:46 51°13.816 2°55.648 -999 2.707882 27.914995 -1.084634
2006-01-19 07:44:52 51°13.825 2°55.641 -999 2.711087 27.949719 -1.050924
2006-01-19 07:44:57 51°13.833 2°55.636 -999 2.730106 28.163164 -1.050924
2006-01-19 07:45:02 51°13.841 2°55.63 -999 2.74034 28.277761 -1.017215
2006-01-19 07:45:07 51°13.849 2°55.624 -999 2.754709 28.43692 -1.017215
2006-01-19 07:45:12 51°13.857 2°55.618 -999 2.773421 28.646385 -0.983506
2006-01-19 07:45:17 51°13.865 2°55.612 -999 2.773421 28.646385 -0.983506
2006-01-19 07:45:22 51°13.873 2°55.606 -999 2.786964 28.797155 -0.983506
2006-01-19 07:45:27 51°13.881 2°55.6 -999 2.798026 28.920583 -0.983506
2006-01-19 07:45:32 51°13.89 2°55.594 -999 2.811776 29.076389 -0.983506
2006-01-19 07:45:37 51°13.898 2°55.588 -999 2.814878 29.110889 -0.983506
2006-01-19 07:45:42 51°13.906 2°55.583 -999 2.8186 29.154167 -1.017215
2006-01-19 07:45:47 51°13.915 2°55.577 -999 2.817773 29.147291 -1.017215
2006-01-19 07:45:52 51°13.923 2°55.571 -999 2.817773 29.147291 -1.017215
2006-01-19 07:45:57 51°13.932 2°55.565 -999 2.811673 29.081155 -1.017215
2006-01-19 07:46:02 51°13.94 2°55.558 -999 2.809812 29.06249 -1.050924
2006-01-19 07:46:07 51°13.949 2°55.552 -999 2.811053 29.077481 -1.050924
2006-01-19 07:46:12 51°13.958 2°55.546 -999 2.814982 29.123973 -1.050924
2006-01-19 07:46:17 51°13.966 2°55.539 -999 2.814982 29.123973 -1.050924
2006-01-19 07:46:22 51°13.975 2°55.533 -999 2.82925 29.285864 -1.084634
2006-01-19 07:46:26 51°13.982 2°55.528 -999 2.834212 29.342498 -1.084634
2006-01-19 07:46:32 51°13.992 2°55.52 -999 2.853341 29.559184 -1.050924
2006-01-19 07:46:37 51°14.001 2°55.514 -999 2.866989 29.712542 -1.084634
2006-01-19 07:46:42 51°14.009 2°55.508 -999 2.876399 29.819245 -1.084634
2006-01-19 07:46:47 51°14.018 2°55.502 -999 2.876399 29.819245 -1.084634
2006-01-19 07:46:52 51°14.027 2°55.495 -999 2.893357 30.01061 -1.084634
2006-01-19 07:46:57 51°14.035 2°55.489 -999 2.895942 30.037563 -1.084634
2006-01-19 07:47:02 51°14.044 2°55.483 -999 2.907111 30.16364 -1.084634
2006-01-19 07:47:07 51°14.052 2°55.476 -999 2.917452 30.2803 -1.084634
2006-01-19 07:47:12 51°14.061 2°55.47 -999 2.924691 30.361458 -1.084634
2006-01-19 07:47:17 51°14.069 2°55.464 -999 2.929861 30.420711 -1.118343
2006-01-19 07:47:22 51°14.078 2°55.457 -999 2.929861 30.420711 -1.118343
2006-01-19 07:47:27 51°14.086 2°55.45 -999 2.928207 30.401748 -1.084634
2006-01-19 07:47:32 51°14.094 2°55.443 -999 2.933895 30.466939 -1.118343
2006-01-19 07:47:37 51°14.103 2°55.436 -999 2.934618 30.473457 -1.084634
2006-01-19 07:47:42 51°14.112 2°55.428 -999 2.936997 30.499833 -1.118343
2006-01-19 07:47:47 51°14.121 2°55.421 -999 2.937514 30.503979 -1.118343
2006-01-19 07:47:52 51°14.131 2°55.413 -999 2.937514 30.503979 -1.118343
2006-01-19 07:47:57 51°14.14 2°55.404 -999 2.932033 30.440268 -1.118343
2006-01-19 07:48:02 51°14.15 2°55.395 -999 2.92769 30.389611 -1.118343
2006-01-19 07:48:07 51°14.16 2°55.386 -999 2.91983 30.300467 -1.084634
2006-01-19 07:48:12 51°14.169 2°55.377 -999 2.920968 30.31438 -1.084634
2006-01-19 07:48:17 51°14.179 2°55.367 -999 2.920968 30.31438 -1.084634
2006-01-19 07:48:22 51°14.188 2°55.357 -999 2.913108 30.224377 -1.084634
2006-01-19 07:48:26 51°14.196 2°55.348 -999 2.905766 30.141208 -1.084634
2006-01-19 07:48:32 51°14.208 2°55.335 -999 2.901423 30.093259 -1.084634
2006-01-19 07:48:37 51°14.217 2°55.324 -999 2.896356 30.036156 -1.084634
2006-01-19 07:48:42 51°14.226 2°55.312 -999 2.892427 29.992077 -1.084634
2006-01-19 07:48:47 51°14.236 2°55.3 -999 2.892427 29.992077 -1.084634
2006-01-19 07:48:52 51°14.244 2°55.288 -999 2.884775 29.906303 -1.118343
2006-01-19 07:48:57 51°14.253 2°55.275 -999 2.881983 29.874377 -1.118343
2006-01-19 07:49:02 51°14.262 2°55.261 -999 2.874124 29.783665 -1.118343
2006-01-19 07:49:07 51°14.27 2°55.247 -999 2.872263 29.762393 -1.118343
2006-01-19 07:49:13 51°14.279 2°55.23 -999 2.870505 29.743172 -1.118343
2006-01-19 07:49:17 51°14.286 2°55.218 -999 2.872159 29.761211 -1.118343
2006-01-19 07:49:22 51°14.293 2°55.204 -999 2.872159 29.761211 -1.118343
2006-01-19 07:49:26 51°14.299 2°55.192 -999 2.871436 29.751202 -1.118343
2006-01-19 07:49:32 51°14.308 2°55.174 -999 2.865025 29.677086 -1.118343
2006-01-19 07:49:37 51°14.316 2°55.159 -999 2.876709 29.808862 -1.118343
2006-01-19 07:49:42 51°14.323 2°55.144 -999 2.874021 29.776398 -1.118343
2006-01-19 07:49:46 51°14.33 2°55.131 -999 2.874021 29.776398 -1.118343
2006-01-19 07:49:52 51°14.339 2°55.111 -999 2.880225 29.847306 -1.118343
2006-01-19 07:49:57 51°14.347 2°55.095 -999 2.885705 29.908214 -1.118343
2006-01-19 07:50:02 51°14.355 2°55.079 -999 2.886946 29.919781 -1.118343
2006-01-19 07:50:07 51°14.364 2°55.062 -999 2.889531 29.946716 -1.118343
2006-01-19 07:50:12 51°14.372 2°55.044 -999 2.892633 29.980437 -1.118343
2006-01-19 07:50:17 51°14.38 2°55.026 -999 2.892633 29.980437 -1.118343
2006-01-19 07:50:23 51°14.388 2°55.003 -999 2.895115 30.007065 -1.118343
2006-01-19 07:50:27 51°14.393 2°54.987 -999 2.896873 30.02454 -1.084634
2006-01-19 07:50:32 51°14.399 2°54.966 -999 2.892737 29.975496 -1.050924
2006-01-19 07:50:37 51°14.404 2°54.946 -999 2.89315 29.980225 -1.084634
2006-01-19 07:50:42 51°14.41 2°54.925 -999 2.898941 30.044684 -1.050924
2006-01-19 07:50:47 51°14.415 2°54.903 -999 2.905559 30.117738 -1.084634
2006-01-19 07:50:53 51°14.421 2°54.877 -999 2.905559 30.117738 -1.084634
2006-01-19 07:50:57 51°14.425 2°54.859 -999 2.91166 30.185771 -1.050924
2006-01-19 07:51:02 51°14.429 2°54.836 -999 2.920864 30.28932 -1.050924
2006-01-19 07:51:07 51°14.433 2°54.812 -999 2.915383 30.224838 -1.084634
2006-01-19 07:51:13 51°14.437 2°54.783 -999 2.920761 30.284603 -1.084634
2006-01-19 07:51:17 51°14.439 2°54.762 -999 2.920864 30.283137 -1.084634
2006-01-19 07:51:22 51°14.441 2°54.737 -999 2.920864 30.283137 -1.084634
2006-01-19 07:51:27 51°14.443 2°54.71 -999 2.935032 30.442644 -1.084634
2006-01-19 07:51:33 51°14.447 2°54.677 -999 2.942478 30.524352 -1.084634
2006-01-19 07:51:37 51°14.449 2°54.655 -999 2.960266 30.72278 -1.084634
2006-01-19 07:51:42 51°14.451 2°54.627 -999 2.975262 30.8875 -1.084634
2006-01-19 07:51:47 51°14.454 2°54.599 -999 2.975262 30.8875 -1.084634
2006-01-19 07:51:52 51°14.457 2°54.57 -999 2.976089 30.888884 -1.084634
2006-01-19 07:51:57 51°14.459 2°54.542 -999 2.997292 31.123899 -1.084634
2006-01-19 07:52:02 51°14.46 2°54.513 -999 3.006187 31.21778 -1.118343
2006-01-19 07:52:07 51°14.462 2°54.483 -999 3.019944 31.365628 -1.118343
2006-01-19 07:52:12 51°14.463 2°54.454 -999 3.021598 31.370923 -1.118343
2006-01-19 07:52:17 51°14.465 2°54.425 -999 3.021598 31.370923 -1.118343
2006-01-19 07:52:22 51°14.468 2°54.396 -999 3.038252 31.549224 -1.118343
2006-01-19 07:52:27 51°14.471 2°54.367 -999 3.053354 31.711567 -1.152053
2006-01-19 07:52:32 51°14.474 2°54.338 -999 3.063388 31.814785 -1.152053
2006-01-19 07:52:37 51°14.475 2°54.309 -999 3.08418 32.042511 -1.152053
2006-01-19 07:52:42 51°14.475 2°54.279 -999 3.096077 32.169912 -1.152053
2006-01-19 07:52:47 51°14.472 2°54.251 -999 3.10456 32.259945 -1.185762
2006-01-19 07:52:52 51°14.469 2°54.222 -999 3.10456 32.259945 -1.185762
2006-01-19 07:52:56 51°14.466 2°54.2 -999 3.111492 32.334011 -1.152053
2006-01-19 07:53:02 51°14.459 2°54.167 -999 3.1267 32.503283 -1.152053
2006-01-19 07:53:07 51°14.452 2°54.14 -999 3.125562 32.485473 -1.185762
2006-01-19 07:53:12 51°14.444 2°54.114 -999 3.137046 32.613818 -1.185762
2006-01-19 07:53:17 51°14.435 2°54.09 -999 3.137253 32.613359 -1.185762
2006-01-19 07:53:22 51°14.425 2°54.065 -999 3.137253 32.613359 -1.185762
2006-01-19 07:53:27 51°14.415 2°54.041 -999 3.137666 32.617174 -1.185762
2006-01-19 07:53:32 51°14.406 2°54.017 -999 3.137149 32.611222 -1.185762
2006-01-19 07:53:37 51°14.395 2°53.993 -999 3.131252 32.543376 -1.185762
2006-01-19 07:53:42 51°14.386 2°53.968 -999 3.130941 32.539805 -1.185762
2006-01-19 07:53:47 51°14.376 2°53.944 -999 3.130941 32.539805 -1.185762
2006-01-19 07:53:52 51°14.366 2°53.919 -999 3.128665 32.512681 -1.185762
2006-01-19 07:53:57 51°14.357 2°53.893 -999 3.133735 32.567213 -1.152053
2006-01-19 07:54:02 51°14.348 2°53.868 -999 3.133942 32.565813 -1.185762
2006-01-19 07:54:07 51°14.339 2°53.842 -999 3.137149 32.597974 -1.185762
2006-01-19 07:54:12 51°14.33 2°53.816 -999 3.145219 32.68512 -1.185762
2006-01-19 07:54:17 51°14.321 2°53.791 -999 3.147599 32.705855 -1.185762
2006-01-19 07:54:22 51°14.312 2°53.765 -999 3.147599 32.705855 -1.185762
2006-01-19 07:54:27 51°14.303 2°53.739 -999 3.149771 32.727053 -1.152053
2006-01-19 07:54:33 51°14.293 2°53.708 -999 3.152668 32.758479 -1.185762
2006-01-19 07:54:37 51°14.285 2°53.688 -999 3.153806 32.770621 -1.152053
2006-01-19 07:54:42 51°14.276 2°53.662 -999 3.151737 32.745867 -1.152053
2006-01-19 07:54:46 51°14.268 2°53.642 -999 3.155048 32.782053 -1.152053
2006-01-19 07:54:52 51°14.256 2°53.613 -999 3.155048 32.782053 -1.152053
2006-01-19 07:54:57 51°14.246 2°53.588 -999 3.155669 32.790145 -1.152053
2006-01-19 07:55:02 51°14.236 2°53.563 -999 3.159393 32.833952 -1.152053
2006-01-19 07:55:06 51°14.228 2°53.543 -999 3.158462 32.827045 -1.152053
2006-01-19 07:55:12 51°14.217 2°53.512 -999 3.163429 32.886111 -1.152053
2006-01-19 07:55:17 51°14.207 2°53.486 -999 3.163429 32.886111 -1.152053
2006-01-19 07:55:22 51°14.198 2°53.461 -999 3.165084 32.904213 -1.152053
2006-01-19 07:55:27 51°14.189 2°53.435 -999 3.158255 32.824664 -1.185762
2006-01-19 07:55:32 51°14.18 2°53.409 -999 3.161877 32.864434 -1.185762
2006-01-19 07:55:37 51°14.172 2°53.382 -999 3.159704 32.838476 -1.185762
2006-01-19 07:55:42 51°14.163 2°53.357 -999 3.157117 32.807761 -1.185762
2006-01-19 07:55:47 51°14.153 2°53.331 -999 3.157117 32.807761 -1.185762
2006-01-19 07:55:53 51°14.142 2°53.3 -999 3.161773 32.860384 -1.185762
2006-01-19 07:55:57 51°14.134 2°53.28 -999 3.162394 32.866575 -1.185762
2006-01-19 07:56:02 51°14.124 2°53.255 -999 3.161463 32.851096 -1.185762
2006-01-19 07:56:06 51°14.116 2°53.235 -999 3.163118 32.867285 -1.185762
2006-01-19 07:56:12 51°14.105 2°53.205 -999 3.163532 32.871094 -1.185762
2006-01-19 07:56:16 51°14.097 2°53.184 -999 3.154117 32.760892 -1.185762
2006-01-19 07:56:22 51°14.085 2°53.155 -999 3.154117 32.760892 -1.185762
2006-01-19 07:56:27 51°14.075 2°53.129 -999 3.158152 32.803495 -1.185762
2006-01-19 07:56:32 51°14.065 2°53.104 -999 3.162497 32.855381 -1.185762
2006-01-19 07:56:37 51°14.056 2°53.078 -999 3.163222 32.865618 -1.185762
2006-01-19 07:56:42 51°14.046 2°53.053 -999 3.152668 32.743286 -1.185762
2006-01-19 07:56:47 51°14.038 2°53.026 -999 3.163325 32.864903 -1.185762
2006-01-19 07:56:52 51°14.028 2°53 -999 3.163325 32.864903 -1.185762
2006-01-19 07:56:57 51°14.02 2°52.974 -999 3.161773 32.844193 -1.185762
2006-01-19 07:57:02 51°14.01 2°52.948 -999 3.163739 32.863948 -1.185762
2006-01-19 07:57:07 51°14.001 2°52.923 -999 3.15691 32.784466 -1.185762
2006-01-19 07:57:13 51°13.989 2°52.892 -999 3.158979 32.80826 -1.185762
2006-01-19 07:57:17 51°13.981 2°52.872 -999 3.158979 32.80826 -1.185762
2006-01-19 07:57:22 51°13.971 2°52.848 -999 3.159704 32.816588 -1.185762
2006-01-19 07:57:27 51°13.961 2°52.823 -999 3.157841 32.796123 -1.185762
2006-01-19 07:57:32 51°13.95 2°52.8 -999 3.157945 32.801115 -1.185762
2006-01-19 07:57:37 51°13.939 2°52.776 -999 3.155048 32.7716 -1.185762
2006-01-19 07:57:42 51°13.929 2°52.752 -999 3.15153 32.733046 -1.185762
2006-01-19 07:57:47 51°13.918 2°52.728 -999 3.15153 32.733046 -1.185762
2006-01-19 07:57:53 51°13.906 2°52.698 -999 3.154841 32.768271 -1.185762
2006-01-19 07:57:57 51°13.898 2°52.678 -999 3.154737 32.762333 -1.185762
2006-01-19 07:58:02 51°13.889 2°52.653 -999 3.159083 32.803746 -1.185762
2006-01-19 07:58:07 51°13.879 2°52.628 -999 3.16767 32.892971 -1.185762
2006-01-19 07:58:12 51°13.87 2°52.603 -999 3.174499 32.96196 -1.185762
2006-01-19 07:58:17 51°13.861 2°52.577 -999 3.181328 33.030935 -1.185762
2006-01-19 07:58:22 51°13.852 2°52.551 -999 3.181328 33.030935 -1.185762
2006-01-19 07:58:27 51°13.843 2°52.526 -999 3.178017 32.984269 -1.185762
2006-01-19 07:58:32 51°13.833 2°52.501 -999 3.181949 33.021824 -1.185762
2006-01-19 07:58:37 51°13.824 2°52.476 -999 3.185363 33.052467 -1.185762
2006-01-19 07:58:42 51°13.814 2°52.451 -999 3.188985 33.087393 -1.185762
2006-01-19 07:58:47 51°13.805 2°52.426 -999 3.188985 33.087393 -1.185762
2006-01-19 07:58:52 51°13.795 2°52.402 -999 3.191365 33.109 -1.185762
2006-01-19 07:58:57 51°13.785 2°52.377 -999 3.192192 33.113726 -1.185762
2006-01-19 07:59:02 51°13.775 2°52.352 -999 3.191778 33.104185 -1.219471
2006-01-19 07:59:07 51°13.765 2°52.328 -999 3.191882 33.099634 -1.219471
2006-01-19 07:59:12 51°13.755 2°52.303 -999 3.20016 33.188984 -1.185762
2006-01-19 07:59:17 51°13.746 2°52.278 -999 3.20016 33.188984 -1.185762
2006-01-19 07:59:22 51°13.736 2°52.253 -999 3.201401 33.198454 -1.219471
2006-01-19 07:59:27 51°13.727 2°52.227 -999 3.201712 33.198184 -1.219471
2006-01-19 07:59:32 51°13.718 2°52.202 -999 3.203057 33.209799 -1.219471
2006-01-19 07:59:37 51°13.708 2°52.177 -999 3.202126 33.195267 -1.185762
2006-01-19 07:59:42 51°13.699 2°52.152 -999 3.206575 33.241573 -1.219471
2006-01-19 07:59:47 51°13.69 2°52.126 -999 3.208748 33.263651 -1.219471
2006-01-19 07:59:52 51°13.68 2°52.101 -999 3.208748 33.263651 -1.219471
2006-01-19 07:59:57 51°13.671 2°52.075 -999 3.209886 33.273842 -1.185762
2006-01-19 08:00:02 51°13.661 2°52.05 -999 3.207196 33.239106 -1.219471
2006-01-19 08:00:07 51°13.651 2°52.025 -999 3.209783 33.264971 -1.219471
2006-01-19 08:00:13 51°13.639 2°51.996 -999 3.207092 33.229285 -1.219471
2006-01-19 08:00:17 51°13.631 2°51.976 -999 3.206057 33.213573 -1.219471
2006-01-19 08:00:22 51°13.621 2°51.951 -999 3.206057 33.213573 -1.219471
2006-01-19 08:00:27 51°13.611 2°51.926 -999 3.209472 33.25085 -1.219471
2006-01-19 08:00:33 51°13.599 2°51.896 -999 3.210921 33.26556 -1.219471
2006-01-19 08:00:37 51°13.591 2°51.876 -999 3.209265 33.244638 -1.219471
2006-01-19 08:00:42 51°13.58 2°51.851 -999 3.205023 33.194035 -1.219471
2006-01-19 08:00:47 51°13.571 2°51.826 -999 3.205023 33.194035 -1.219471
2006-01-19 08:00:52 51°13.561 2°51.801 -999 3.207196 33.216095 -1.219471
2006-01-19 08:00:57 51°13.551 2°51.775 -999 3.21299 33.279715 -1.219471
2006-01-19 08:01:02 51°13.541 2°51.75 -999 3.214232 33.292046 -1.219471
2006-01-19 08:01:07 51°13.532 2°51.724 -999 3.214646 33.293915 -1.219471
2006-01-19 08:01:12 51°13.523 2°51.698 -999 3.214749 33.296063 -1.219471
2006-01-19 08:01:17 51°13.513 2°51.672 -999 3.214749 33.296063 -1.219471
2006-01-19 08:01:22 51°13.504 2°51.647 -999 3.217854 33.332653 -1.219471
2006-01-19 08:01:27 51°13.494 2°51.622 -999 3.217957 33.336725 -1.219471
2006-01-19 08:01:32 51°13.484 2°51.596 -999 3.214439 33.299223 -1.219471
2006-01-19 08:01:37 51°13.474 2°51.571 -999 3.214542 33.302332 -1.185762
2006-01-19 08:01:42 51°13.464 2°51.546 -999 3.214542 33.305214 -1.219471
2006-01-19 08:01:47 51°13.454 2°51.521 -999 3.216923 33.334462 -1.219471
2006-01-19 08:01:52 51°13.444 2°51.496 -999 3.216923 33.334462 -1.219471
2006-01-19 08:01:57 51°13.434 2°51.47 -999 3.21951 33.366093 -1.219471
2006-01-19 08:02:02 51°13.424 2°51.445 -999 3.214646 33.310246 -1.219471
2006-01-19 08:02:07 51°13.415 2°51.42 -999 3.219923 33.371809 -1.219471
2006-01-19 08:02:12 51°13.405 2°51.394 -999 3.215267 33.317375 -1.219471
2006-01-19 08:02:17 51°13.395 2°51.369 -999 3.21775 33.343967 -1.219471
2006-01-19 08:02:22 51°13.385 2°51.344 -999 3.21775 33.343967 -1.219471
2006-01-19 08:02:26 51°13.377 2°51.323 -999 3.22189 33.390536 -1.219471
2006-01-19 08:02:32 51°13.366 2°51.293 -999 3.218889 33.354151 -1.219471
2006-01-19 08:02:37 51°13.356 2°51.267 -999 3.215163 33.308498 -1.219471
2006-01-19 08:02:42 51°13.346 2°51.242 -999 3.214335 33.297075 -1.219471
2006-01-19 08:02:46 51°13.338 2°51.222 -999 3.214335 33.297075 -1.219471
2006-01-19 08:02:52 51°13.326 2°51.192 -999 3.221062 33.373326 -1.219471
2006-01-19 08:02:57 51°13.316 2°51.167 -999 3.220027 33.362408 -1.219471
2006-01-19 08:03:02 51°13.306 2°51.141 -999 3.220855 33.37095 -1.219471
2006-01-19 08:03:07 51°13.296 2°51.116 -999 3.222821 33.393525 -1.219471
2006-01-19 08:03:12 51°13.286 2°51.09 -999 3.214335 33.294194 -1.219471
2006-01-19 08:03:17 51°13.276 2°51.065 -999 3.214335 33.294194 -1.219471
2006-01-19 08:03:22 51°13.267 2°51.039 -999 3.219509 33.351658 -1.219471
2006-01-19 08:03:27 51°13.257 2°51.013 -999 3.217129 33.322417 -1.219471
2006-01-19 08:03:32 51°13.247 2°50.988 -999 3.2222 33.378693 -1.219471
2006-01-19 08:03:37 51°13.238 2°50.962 -999 3.221579 33.370604 -1.219471
2006-01-19 08:03:42 51°13.228 2°50.937 -999 3.219923 33.349677 -1.219471
2006-01-19 08:03:47 51°13.218 2°50.911 -999 3.220234 33.354201 -1.219471
2006-01-19 08:03:52 51°13.208 2°50.886 -999 3.220234 33.354201 -1.219471
2006-01-19 08:03:57 51°13.198 2°50.86 -999 3.221475 33.368454 -1.219471
2006-01-19 08:04:02 51°13.188 2°50.835 -999 3.220234 33.35324 -1.219471
2006-01-19 08:04:07 51°13.178 2°50.81 -999 3.222614 33.380557 -1.219471
2006-01-19 08:04:12 51°13.168 2°50.784 -999 3.221062 33.362741 -1.219471
2006-01-19 08:04:17 51°13.158 2°50.759 -999 3.221062 33.362741 -1.219471
2006-01-19 08:04:22 51°13.148 2°50.733 -999 3.219613 33.347075 -1.219471
2006-01-19 08:04:27 51°13.138 2°50.708 -999 3.221993 33.374393 -1.219471
2006-01-19 08:04:32 51°13.129 2°50.682 -999 3.222717 33.381745 -1.219471
2006-01-19 08:04:37 51°13.119 2°50.656 -999 3.222924 33.381233 -1.219471
2006-01-19 08:04:42 51°13.11 2°50.63 -999 3.217129 33.31185 -1.219471
2006-01-19 08:04:47 51°13.1 2°50.604 -999 3.214853 33.285732 -1.219471
2006-01-19 08:04:52 51°13.091 2°50.578 -999 3.214853 33.285732 -1.219471
2006-01-19 08:04:57 51°13.081 2°50.553 -999 3.21982 33.341759 -1.219471
2006-01-19 08:05:02 51°13.071 2°50.527 -999 3.223441 33.383321 -1.219471
2006-01-19 08:05:06 51°13.063 2°50.507 -999 3.223959 33.388297 -1.219471
2006-01-19 08:05:12 51°13.051 2°50.476 -999 3.220647 33.348375 -1.219471
2006-01-19 08:05:17 51°13.041 2°50.451 -999 3.222614 33.369973 -1.219471
2006-01-19 08:05:22 51°13.031 2°50.425 -999 3.222614 33.369973 -1.219471
2006-01-19 08:05:27 51°13.022 2°50.4 -999 3.21537 33.283991 -1.219471
2006-01-19 08:05:32 51°13.012 2°50.374 -999 3.221165 33.350466 -1.219471
2006-01-19 08:05:37 51°13.002 2°50.348 -999 3.221165 33.349505 -1.219471
2006-01-19 08:05:42 51°12.993 2°50.322 -999 3.222303 33.361603 -1.219471
2006-01-19 08:05:47 51°12.984 2°50.296 -999 3.225511 33.396484 -1.219471
2006-01-19 08:05:52 51°12.974 2°50.271 -999 3.225511 33.396484 -1.219471
2006-01-19 08:05:57 51°12.965 2°50.244 -999 3.223752 33.373415 -1.219471
2006-01-19 08:06:02 51°12.955 2°50.218 -999 3.223131 33.365331 -1.219471
2006-01-19 08:06:07 51°12.946 2°50.192 -999 3.223441 33.366969 -1.219471
2006-01-19 08:06:12 51°12.936 2°50.166 -999 3.227891 33.414165 -1.219471
2006-01-19 08:06:17 51°12.927 2°50.14 -999 3.227891 33.414165 -1.219471
2006-01-19 08:06:22 51°12.918 2°50.113 -999 3.225407 33.383752 -1.219471
2006-01-19 08:06:26 51°12.911 2°50.092 -999 3.223752 33.361879 -1.219471
2006-01-19 08:06:32 51°12.9 2°50.061 -999 3.223959 33.360409 -1.219471
2006-01-19 08:06:37 51°12.891 2°50.034 -999 3.226442 33.386004 -1.219471
2006-01-19 08:06:42 51°12.882 2°50.008 -999 3.222199 33.334477 -1.219471
2006-01-19 08:06:47 51°12.873 2°49.982 -999 3.221992 33.331145 -1.219471
2006-01-19 08:06:52 51°12.863 2°49.956 -999 3.221992 33.331145 -1.219471
2006-01-19 08:06:57 51°12.853 2°49.93 -999 3.226959 33.384246 -1.219471
2006-01-19 08:07:02 51°12.844 2°49.904 -999 3.228201 33.398483 -1.253181
2006-01-19 08:07:07 51°12.834 2°49.878 -999 3.226649 33.378765 -1.219471
2006-01-19 08:07:13 51°12.823 2°49.847 -999 3.229546 33.41006 -1.219471
2006-01-19 08:07:17 51°12.816 2°49.826 -999 3.228098 33.391528 -1.219471
2006-01-19 08:07:22 51°12.807 2°49.8 -999 3.228098 33.391528 -1.219471
2006-01-19 08:07:27 51°12.798 2°49.773 -999 3.231926 33.432536 -1.219471
2006-01-19 08:07:32 51°12.789 2°49.747 -999 3.231719 33.428239 -1.219471
2006-01-19 08:07:37 51°12.78 2°49.721 -999 3.226959 33.370795 -1.219471
2006-01-19 08:07:43 51°12.769 2°49.689 -999 3.223648 33.329971 -1.219471
2006-01-19 08:07:47 51°12.762 2°49.669 -999 3.223648 33.329971 -1.219471
2006-01-19 08:07:52 51°12.752 2°49.643 -999 3.229546 33.394678 -1.219471
2006-01-19 08:07:57 51°12.743 2°49.617 -999 3.228408 33.378753 -1.219471
2006-01-19 08:08:02 51°12.733 2°49.591 -999 3.235031 33.452724 -1.219471
2006-01-19 08:08:07 51°12.724 2°49.565 -999 3.232547 33.421377 -1.219471
2006-01-19 08:08:12 51°12.715 2°49.539 -999 3.229753 33.387443 -1.219471
2006-01-19 08:08:17 51°12.706 2°49.513 -999 3.229753 33.387443 -1.219471
2006-01-19 08:08:22 51°12.697 2°49.487 -999 3.237514 33.474448 -1.219471
2006-01-19 08:08:26 51°12.689 2°49.466 -999 3.236997 33.464668 -1.219471
2006-01-19 08:08:32 51°12.679 2°49.434 -999 3.235962 33.449925 -1.219471
2006-01-19 08:08:37 51°12.669 2°49.408 -999 3.236686 33.455338 -1.219471
2006-01-19 08:08:42 51°12.661 2°49.381 -999 3.238446 33.47453 -1.219471
2006-01-19 08:08:47 51°12.652 2°49.355 -999 3.239584 33.484683 -1.219471
2006-01-19 08:08:52 51°12.643 2°49.328 -999 3.239584 33.484683 -1.219471
2006-01-19 08:08:57 51°12.633 2°49.302 -999 3.239584 33.482758 -1.253181
2006-01-19 08:09:02 51°12.624 2°49.276 -999 3.237204 33.451647 -1.219471
2006-01-19 08:09:06 51°12.617 2°49.255 -999 3.236272 33.437135 -1.219471
2006-01-19 08:09:12 51°12.606 2°49.224 -999 3.238756 33.46173 -1.219471
2006-01-19 08:09:17 51°12.596 2°49.198 -999 3.238756 33.458845 -1.219471
2006-01-19 08:09:22 51°12.587 2°49.172 -999 3.238756 33.458845 -1.219471
2006-01-19 08:09:27 51°12.577 2°49.146 -999 3.240825 33.477735 -1.253181
2006-01-19 08:09:32 51°12.568 2°49.12 -999 3.241032 33.476257 -1.219471
2006-01-19 08:09:37 51°12.558 2°49.094 -999 3.242171 33.48448 -1.219471
2006-01-19 08:09:42 51°12.549 2°49.068 -999 3.240411 33.461458 -1.219471
2006-01-19 08:09:47 51°12.54 2°49.042 -999 3.240411 33.461458 -1.219471
2006-01-19 08:09:52 51°12.531 2°49.016 -999 3.243102 33.487446 -1.219471
2006-01-19 08:09:57 51°12.522 2°48.99 -999 3.243723 33.488783 -1.253181
2006-01-19 08:10:02 51°12.513 2°48.963 -999 3.24186 33.463624 -1.219471
2006-01-19 08:10:07 51°12.504 2°48.937 -999 3.244551 33.490564 -1.219471
2006-01-19 08:10:12 51°12.495 2°48.911 -999 3.245378 33.495229 -1.253181
2006-01-19 08:10:17 51°12.486 2°48.885 -999 3.245482 33.493529 -1.219471
2006-01-19 08:10:22 51°12.477 2°48.858 -999 3.245482 33.493529 -1.219471
2006-01-19 08:10:27 51°12.468 2°48.832 -999 3.244964 33.482806 -1.219471
2006-01-19 08:10:32 51°12.459 2°48.806 -999 3.245585 33.486065 -1.219471
2006-01-19 08:10:37 51°12.45 2°48.78 -999 3.246206 33.488362 -1.253181
2006-01-19 08:10:42 51°12.441 2°48.753 -999 3.246517 33.489991 -1.219471
2006-01-19 08:10:47 51°12.432 2°48.727 -999 3.24693 33.490881 -1.219471
2006-01-19 08:10:53 51°12.421 2°48.695 -999 3.24693 33.490881 -1.219471
2006-01-19 08:10:57 51°12.414 2°48.674 -999 3.24631 33.480902 -1.253181
2006-01-19 08:11:02 51°12.405 2°48.648 -999 3.246103 33.476615 -1.219471
2006-01-19 08:11:07 51°12.396 2°48.621 -999 3.247344 33.488891 -1.219471
2006-01-19 08:11:12 51°12.387 2°48.595 -999 3.247551 33.488376 -1.219471
2006-01-19 08:11:17 51°12.378 2°48.569 -999 3.247551 33.488376 -1.219471
2006-01-19 08:11:22 51°12.369 2°48.543 -999 3.244654 33.45334 -1.219471
2006-01-19 08:11:27 51°12.36 2°48.516 -999 3.248379 33.494958 -1.253181
2006-01-19 08:11:32 51°12.35 2°48.49 -999 3.24931 33.502723 -1.253181
2006-01-19 08:11:37 51°12.341 2°48.464 -999 3.250138 33.510264 -1.253181
2006-01-19 08:11:42 51°12.332 2°48.438 -999 3.250552 33.513074 -1.253181
2006-01-19 08:11:47 51°12.323 2°48.412 -999 3.250552 33.513074 -1.253181
2006-01-19 08:11:52 51°12.314 2°48.385 -999 3.249517 33.499327 -1.219471
2006-01-19 08:11:57 51°12.304 2°48.359 -999 3.250552 33.509232 -1.253181
2006-01-19 08:12:02 51°12.295 2°48.333 -999 3.250863 33.509899 -1.253181
2006-01-19 08:12:07 51°12.286 2°48.306 -999 3.249414 33.491425 -1.219471
2006-01-19 08:12:12 51°12.277 2°48.28 -999 3.25169 33.513597 -1.253181
2006-01-19 08:12:17 51°12.268 2°48.254 -999 3.252208 33.517588 -1.219471
2006-01-19 08:12:22 51°12.259 2°48.227 -999 3.252208 33.517588 -1.219471
2006-01-19 08:12:27 51°12.25 2°48.201 -999 3.25169 33.509756 -1.253181
2006-01-19 08:12:32 51°12.24 2°48.175 -999 3.249931 33.486782 -1.253181
2006-01-19 08:12:37 51°12.231 2°48.149 -999 3.252725 33.517738 -1.253181
2006-01-19 08:12:42 51°12.222 2°48.123 -999 3.252829 33.517 -1.253181
2006-01-19 08:12:47 51°12.213 2°48.096 -999 3.25138 33.498533 -1.219471
2006-01-19 08:12:52 51°12.204 2°48.07 -999 3.25138 33.498533 -1.219471
2006-01-19 08:12:57 51°12.195 2°48.044 -999 3.254278 33.530668 -1.219471
2006-01-19 08:13:02 51°12.186 2°48.017 -999 3.254588 33.532294 -1.219471
2006-01-19 08:13:07 51°12.177 2°47.991 -999 3.253139 33.513827 -1.253181
2006-01-19 08:13:12 51°12.168 2°47.964 -999 3.253967 33.520402 -1.253181
2006-01-19 08:13:17 51°12.159 2°47.937 -999 3.253967 33.520402 -1.253181
2006-01-19 08:13:22 51°12.15 2°47.911 -999 3.250759 33.480894 -1.253181
2006-01-19 08:13:27 51°12.141 2°47.885 -999 3.254691 33.521956 -1.219471
2006-01-19 08:13:33 51°12.13 2°47.854 -999 3.254691 33.519077 -1.253181
2006-01-19 08:13:37 51°12.122 2°47.833 -999 3.254277 33.511474 -1.253181
2006-01-19 08:13:42 51°12.113 2°47.807 -999 3.255519 33.521813 -1.219471
2006-01-19 08:13:47 51°12.104 2°47.781 -999 3.25614 33.525063 -1.253181
2006-01-19 08:13:53 51°12.093 2°47.749 -999 3.25614 33.525063 -1.253181
2006-01-19 08:13:57 51°12.086 2°47.728 -999 3.256243 33.523366 -1.253181
2006-01-19 08:14:02 51°12.077 2°47.702 -999 3.256761 33.524476 -1.253181
2006-01-19 08:14:07 51°12.068 2°47.676 -999 3.257071 33.520347 -1.253181
2006-01-19 08:14:12 51°12.059 2°47.649 -999 3.257071 33.514596 -1.253181
2006-01-19 08:14:17 51°12.05 2°47.623 -999 3.258727 33.526774 -1.253181
2006-01-19 08:14:22 51°12.04 2°47.597 -999 3.258727 33.526774 -1.253181
2006-01-19 08:14:26 51°12.033 2°47.576 -999 3.258623 33.518886 -1.253181
2006-01-19 08:14:32 51°12.022 2°47.545 -999 3.258416 33.507906 -1.253181
2006-01-19 08:14:37 51°12.013 2°47.519 -999 3.259865 33.515804 -1.253181
2006-01-19 08:14:42 51°12.004 2°47.493 -999 3.260175 33.510727 -1.253181
2006-01-19 08:14:47 51°11.995 2°47.466 -999 3.25883 33.488702 -1.253181
2006-01-19 08:14:52 51°11.986 2°47.44 -999 3.25883 33.488702 -1.253181
2006-01-19 08:14:57 51°11.977 2°47.414 -999 3.258416 33.47634 -1.253181
2006-01-19 08:15:02 51°11.969 2°47.387 -999 3.260279 33.489909 -1.253181
2006-01-19 08:15:07 51°11.96 2°47.361 -999 3.258209 33.459655 -1.253181
2006-01-19 08:15:13 51°11.949 2°47.329 -999 3.262245 33.499873 -1.219471
2006-01-19 08:15:17 51°11.942 2°47.308 -999 3.262245 33.499873 -1.219471
2006-01-19 08:15:22 51°11.933 2°47.282 -999 3.260899 33.478827 -1.253181
2006-01-19 08:15:27 51°11.924 2°47.255 -999 3.262659 33.49312 -1.253181
2006-01-19 08:15:32 51°11.915 2°47.229 -999 3.26328 33.495411 -1.253181
2006-01-19 08:15:37 51°11.906 2°47.203 -999 3.263176 33.488504 -1.253181
2006-01-19 08:15:42 51°11.897 2°47.177 -999 3.263072 33.483509 -1.253181
2006-01-19 08:15:46 51°11.889 2°47.156 -999 3.2639 33.489109 -1.253181
2006-01-19 08:15:52 51°11.878 2°47.125 -999 3.2639 33.489109 -1.253181
2006-01-19 08:15:57 51°11.869 2°47.099 -999 3.263797 33.483161 -1.253181
2006-01-19 08:16:02 51°11.86 2°47.073 -999 3.264521 33.487583 -1.253181
2006-01-19 08:16:06 51°11.852 2°47.052 -999 3.262658 33.462585 -1.253181
2006-01-19 08:16:12 51°11.842 2°47.021 -999 3.264314 33.477598 -1.253181
2006-01-19 08:16:17 51°11.832 2°46.995 -999 3.264625 33.477314 -1.253181
2006-01-19 08:16:22 51°11.824 2°46.968 -999 3.264625 33.477314 -1.253181
2006-01-19 08:16:27 51°11.815 2°46.942 -999 3.265038 33.478206 -1.253181
2006-01-19 08:16:32 51°11.806 2°46.916 -999 3.264935 33.473217 -1.253181
2006-01-19 08:16:37 51°11.797 2°46.889 -999 3.263797 33.45742 -1.253181
2006-01-19 08:16:42 51°11.789 2°46.863 -999 3.265142 33.469851 -1.253181
2006-01-19 08:16:46 51°11.782 2°46.842 -999 3.265142 33.469851 -1.253181
2006-01-19 08:16:51 51°11.773 2°46.815 -999 3.265659 33.47192 -1.253181
2006-01-19 08:16:57 51°11.763 2°46.784 -999 3.264624 33.458255 -1.253181
2006-01-19 08:17:02 51°11.754 2°46.758 -999 3.265038 33.462007 -1.253181
2006-01-19 08:17:07 51°11.745 2°46.731 -999 3.26628 33.474212 -1.253181
2006-01-19 08:17:12 51°11.736 2°46.705 -999 3.26628 33.472306 -1.253181
2006-01-19 08:17:17 51°11.727 2°46.679 -999 3.26628 33.472306 -1.253181
2006-01-19 08:17:22 51°11.718 2°46.653 -999 3.265452 33.460996 -1.253181
2006-01-19 08:17:26 51°11.71 2°46.632 -999 3.266384 33.469672 -1.219471
2006-01-19 08:17:32 51°11.7 2°46.601 -999 3.265866 33.461889 -1.253181
2006-01-19 08:17:37 51°11.691 2°46.575 -999 3.267211 33.474315 -1.253181
2006-01-19 08:17:42 51°11.682 2°46.548 -999 3.267211 33.47241 -1.253181
2006-01-19 08:17:47 51°11.673 2°46.522 -999 3.267211 33.470506 -1.253181
2006-01-19 08:17:53 51°11.663 2°46.49 -999 3.267211 33.470506 -1.253181
2006-01-19 08:17:57 51°11.656 2°46.47 -999 3.267522 33.472128 -1.253181
2006-01-19 08:18:02 51°11.647 2°46.443 -999 3.267004 33.463395 -1.253181
2006-01-19 08:18:07 51°11.639 2°46.416 -999 3.267522 33.467367 -1.253181
2006-01-19 08:18:13 51°11.628 2°46.385 -999 3.266073 33.449964 -1.253181
2006-01-19 08:18:17 51°11.621 2°46.364 -999 3.266383 33.451586 -1.253181
2006-01-19 08:18:22 51°11.612 2°46.338 -999 3.266383 33.451586 -1.253181
2006-01-19 08:18:27 51°11.604 2°46.311 -999 3.266694 33.45416 -1.253181
2006-01-19 08:18:32 51°11.595 2°46.285 -999 3.267729 33.464959 -1.253181
2006-01-19 08:18:37 51°11.586 2°46.259 -999 3.267729 33.464959 -1.253181
2006-01-19 08:18:42 51°11.577 2°46.233 -999 3.266487 33.448956 -1.253181
2006-01-19 08:18:46 51°11.569 2°46.212 -999 3.266487 33.448956 -1.253181
2006-01-19 08:18:52 51°11.558 2°46.182 -999 3.26628 33.444704 -1.253181
2006-01-19 08:18:57 51°11.549 2°46.156 -999 3.266901 33.449851 -1.253181
2006-01-19 08:19:02 51°11.54 2°46.13 -999 3.26628 33.43995 -1.253181
2006-01-19 08:19:06 51°11.533 2°46.108 -999 3.263072 33.40069 -1.253181
2006-01-19 08:19:12 51°11.523 2°46.077 -999 3.264727 33.417581 -1.253181
2006-01-19 08:19:17 51°11.515 2°46.05 -999 3.260381 33.365416 -1.253181
2006-01-19 08:19:22 51°11.507 2°46.023 -999 3.260381 33.365416 -1.253181
2006-01-19 08:19:26 51°11.501 2°46.001 -999 3.263692 33.40109 -1.253181
2006-01-19 08:19:32 51°11.492 2°45.968 -999 3.262451 33.383205 -1.253181
2006-01-19 08:19:37 51°11.485 2°45.941 -999 3.262244 33.380857 -1.253181
2006-01-19 08:19:42 51°11.478 2°45.913 -999 3.255827 33.307138 -1.253181
2006-01-19 08:19:47 51°11.471 2°45.885 -999 3.261519 33.371691 -1.253181
2006-01-19 08:19:52 51°11.464 2°45.858 -999 3.261519 33.371691 -1.253181
2006-01-19 08:19:57 51°11.457 2°45.83 -999 3.261209 33.36817 -1.253181
2006-01-19 08:20:02 51°11.449 2°45.803 -999 3.261312 33.369344 -1.253181
2006-01-19 08:20:07 51°11.442 2°45.776 -999 3.26183 33.375213 -1.253181
2006-01-19 08:20:12 51°11.434 2°45.749 -999 3.261519 33.371691 -1.253181
2006-01-19 08:20:17 51°11.426 2°45.721 -999 3.262451 33.383205 -1.253181
2006-01-19 08:20:22 51°11.418 2°45.694 -999 3.262451 33.383205 -1.253181
2006-01-19 08:20:27 51°11.41 2°45.667 -999 3.260588 33.362075 -1.253181
2006-01-19 08:20:32 51°11.403 2°45.639 -999 3.262554 33.384379 -1.253181
2006-01-19 08:20:37 51°11.395 2°45.612 -999 3.262037 33.378509 -1.253181
2006-01-19 08:20:42 51°11.388 2°45.585 -999 3.259346 33.346094 -1.253181
2006-01-19 08:20:47 51°11.38 2°45.557 -999 3.259346 33.346094 -1.253181
2006-01-19 08:20:52 51°11.373 2°45.529 -999 3.261519 33.371691 -1.253181
2006-01-19 08:20:57 51°11.366 2°45.501 -999 3.260381 33.357831 -1.253181
2006-01-19 08:21:02 51°11.359 2°45.473 -999 3.260795 33.362526 -1.253181
2006-01-19 08:21:07 51°11.353 2°45.445 -999 3.261312 33.366499 -1.253181
2006-01-19 08:21:12 51°11.347 2°45.417 -999 3.259967 33.350293 -1.219471
2006-01-19 08:21:17 51°11.34 2°45.389 -999 3.261209 33.362482 -1.253181
2006-01-19 08:21:22 51°11.334 2°45.361 -999 3.261209 33.362482 -1.253181
2006-01-19 08:21:27 51°11.328 2°45.333 -999 3.259242 33.338289 -1.253181
2006-01-19 08:21:32 51°11.321 2°45.305 -999 3.258207 33.326555 -1.253181
2006-01-19 08:21:37 51°11.314 2°45.276 -999 3.260691 33.353771 -1.253181
2006-01-19 08:21:42 51°11.307 2°45.248 -999 3.258932 33.333822 -1.253181
2006-01-19 08:21:47 51°11.301 2°45.221 -999 3.260795 33.354944 -1.253181
2006-01-19 08:21:52 51°11.293 2°45.193 -999 3.260795 33.354944 -1.253181
2006-01-19 08:21:57 51°11.286 2°45.166 -999 3.258828 33.332648 -1.253181
2006-01-19 08:22:02 51°11.278 2°45.138 -999 3.260588 33.352597 -1.253181
2006-01-19 08:22:06 51°11.272 2°45.116 -999 3.261933 33.365958 -1.253181
2006-01-19 08:22:12 51°11.262 2°45.084 -999 3.261623 33.361489 -1.253181
2006-01-19 08:22:17 51°11.255 2°45.057 -999 3.261623 33.361489 -1.253181
2006-01-19 08:22:22 51°11.247 2°45.03 -999 3.262036 33.365236 -1.253181
2006-01-19 08:22:27 51°11.24 2°45.002 -999 3.260484 33.34574 -1.253181
2006-01-19 08:22:33 51°11.231 2°44.969 -999 3.259242 33.330714 -1.253181
2006-01-19 08:22:37 51°11.225 2°44.946 -999 3.261829 33.358151 -1.253181
2006-01-19 08:22:42 51°11.218 2°44.919 -999 3.261519 33.352737 -1.253181
2006-01-19 08:22:47 51°11.211 2°44.891 -999 3.261726 33.352242 -1.253181
2006-01-19 08:22:52 51°11.204 2°44.863 -999 3.261726 33.352242 -1.253181
2006-01-19 08:22:57 51°11.197 2°44.835 -999 3.261622 33.349175 -1.253181
2006-01-19 08:23:02 51°11.19 2°44.808 -999 3.262243 33.354319 -1.253181
2006-01-19 08:23:07 51°11.183 2°44.78 -999 3.261519 33.343268 -1.253181
2006-01-19 08:23:12 51°11.175 2°44.752 -999 3.262864 33.357569 -1.253181
2006-01-19 08:23:17 51°11.168 2°44.725 -999 3.261933 33.346066 -1.253181
2006-01-19 08:23:22 51°11.16 2°44.697 -999 3.261933 33.346066 -1.253181
2006-01-19 08:23:27 51°11.153 2°44.67 -999 3.261622 33.341601 -1.253181
2006-01-19 08:23:32 51°11.145 2°44.643 -999 3.263175 33.359193 -1.253181
2006-01-19 08:23:37 51°11.137 2°44.615 -999 3.264106 33.367855 -1.253181
2006-01-19 08:23:42 51°11.13 2°44.588 -999 3.263071 33.356127 -1.253181
2006-01-19 08:23:47 51°11.123 2°44.56 -999 3.264209 33.36808 -1.253181
2006-01-19 08:23:52 51°11.115 2°44.533 -999 3.264209 33.36808 -1.253181
2006-01-19 08:23:57 51°11.109 2°44.505 -999 3.262657 33.349542 -1.253181
2006-01-19 08:24:02 51°11.102 2°44.477 -999 3.262657 33.347649 -1.253181
2006-01-19 08:24:07 51°11.095 2°44.449 -999 3.263278 33.352792 -1.253181
2006-01-19 08:24:13 51°11.087 2°44.415 -999 3.262864 33.347155 -1.253181
2006-01-19 08:24:17 51°11.082 2°44.393 -999 3.262864 33.347155 -1.253181
2006-01-19 08:24:22 51°11.076 2°44.364 -999 3.263175 33.350673 -1.253181
2006-01-19 08:24:27 51°11.07 2°44.336 -999 3.263071 33.347607 -1.253181
2006-01-19 08:24:32 51°11.064 2°44.308 -999 3.262968 33.345489 -1.253181
2006-01-19 08:24:37 51°11.057 2°44.279 -999 3.263485 33.349458 -1.253181
2006-01-19 08:24:42 51°11.051 2°44.251 -999 3.262968 33.343596 -1.253181
2006-01-19 08:24:46 51°11.046 2°44.228 -999 3.263899 33.352255 -1.253181
2006-01-19 08:24:52 51°11.039 2°44.194 -999 3.263899 33.352255 -1.253181
2006-01-19 08:24:57 51°11.033 2°44.166 -999 3.26452 33.359289 -1.253181
2006-01-19 08:25:02 51°11.026 2°44.138 -999 3.262243 33.332552 -1.253181
2006-01-19 08:25:06 51°11.021 2°44.115 -999 3.262967 33.339812 -1.253181
2006-01-19 08:25:12 51°11.013 2°44.082 -999 3.264209 33.351987 -1.253181
2006-01-19 08:25:17 51°11.007 2°44.054 -999 3.26483 33.359021 -1.253181
2006-01-19 08:25:22 51°11 2°44.026 -999 3.26483 33.359021 -1.253181
2006-01-19 08:25:26 51°10.995 2°44.003 -999 3.264209 33.351987 -1.253181
2006-01-19 08:25:32 51°10.987 2°43.97 -999 3.262553 33.332286 -1.253181
2006-01-19 08:25:37 51°10.98 2°43.941 -999 3.26245 33.330169 -1.253181
2006-01-19 08:25:42 51°10.974 2°43.913 -999 3.263485 33.340944 -1.253181
2006-01-19 08:25:47 51°10.967 2°43.885 -999 3.263485 33.340944 -1.253181
2006-01-19 08:25:52 51°10.961 2°43.857 -999 3.262864 33.332966 -1.253181
2006-01-19 08:25:57 51°10.954 2°43.828 -999 3.26245 33.326387 -1.253181
2006-01-19 08:26:02 51°10.948 2°43.8 -999 3.260898 33.306919 -1.253181
2006-01-19 08:26:07 51°10.942 2°43.772 -999 3.261519 33.313005 -1.253181
2006-01-19 08:26:12 51°10.935 2°43.743 -999 3.261725 33.313459 -1.253181
2006-01-19 08:26:17 51°10.929 2°43.715 -999 3.262346 33.319544 -1.253181
2006-01-19 08:26:22 51°10.923 2°43.687 -999 3.262346 33.319544 -1.253181
2006-01-19 08:26:27 51°10.916 2°43.658 -999 3.262657 33.32117 -1.253181
2006-01-19 08:26:32 51°10.91 2°43.63 -999 3.261415 33.306166 -1.253181
2006-01-19 08:26:37 51°10.904 2°43.602 -999 3.261518 33.306393 -1.253181
2006-01-19 08:26:42 51°10.897 2°43.573 -999 3.263381 33.327482 -1.253181
2006-01-19 08:26:47 51°10.89 2°43.545 -999 3.26245 33.315992 -1.253181
2006-01-19 08:26:52 51°10.884 2°43.517 -999 3.26245 33.315992 -1.253181
2006-01-19 08:26:57 51°10.877 2°43.489 -999 3.263485 33.325818 -1.253181
2006-01-19 08:27:02 51°10.871 2°43.461 -999 3.263485 33.323929 -1.253181
2006-01-19 08:27:07 51°10.864 2°43.433 -999 3.26276 33.314784 -1.253181
2006-01-19 08:27:12 51°10.857 2°43.405 -999 3.262864 33.315011 -1.253181
2006-01-19 08:27:17 51°10.85 2°43.377 -999 3.259138 33.271901 -1.253181
2006-01-19 08:27:22 51°10.844 2°43.348 -999 3.259138 33.271901 -1.253181
2006-01-19 08:27:26 51°10.839 2°43.326 -999 3.263278 33.317807 -1.253181
2006-01-19 08:27:33 51°10.83 2°43.286 -999 3.263899 33.322002 -1.253181
2006-01-19 08:27:37 51°10.826 2°43.263 -999 3.263795 33.318941 -1.253181
2006-01-19 08:27:42 51°10.819 2°43.235 -999 3.263485 33.311651 -1.253181
2006-01-19 08:27:47 51°10.814 2°43.206 -999 3.263485 33.311651 -1.253181
2006-01-19 08:27:52 51°10.807 2°43.178 -999 3.257689 33.244197 -1.253181
2006-01-19 08:27:57 51°10.801 2°43.149 -999 3.264726 33.321927 -1.253181
2006-01-19 08:28:02 51°10.795 2°43.121 -999 3.264726 33.319094 -1.253181
2006-01-19 08:28:07 51°10.789 2°43.093 -999 3.265244 33.322117 -1.253181
2006-01-19 08:28:12 51°10.782 2°43.065 -999 3.264623 33.313204 -1.253181
2006-01-19 08:28:18 51°10.774 2°43.031 -999 3.265761 33.324194 -1.253181
2006-01-19 08:28:22 51°10.769 2°43.009 -999 3.265761 33.324194 -1.253181
2006-01-19 08:28:27 51°10.762 2°42.981 -999 3.267314 33.339867 -1.253181
2006-01-19 08:28:32 51°10.756 2°42.952 -999 3.267624 33.340546 -1.253181
2006-01-19 08:28:37 51°10.749 2°42.924 -999 3.266486 33.324837 -1.253181
2006-01-19 08:28:42 51°10.743 2°42.896 -999 3.269797 33.360407 -1.253181
2006-01-19 08:28:47 51°10.737 2°42.867 -999 3.269694 33.356402 -1.253181
2006-01-19 08:28:52 51°10.731 2°42.839 -999 3.269694 33.356402 -1.253181
2006-01-19 08:28:57 51°10.725 2°42.81 -999 3.268969 33.345376 -1.253181
2006-01-19 08:29:02 51°10.719 2°42.782 -999 3.268969 33.342544 -1.253181
2006-01-19 08:29:07 51°10.713 2°42.753 -999 3.268866 33.337598 -1.253181
2006-01-19 08:29:12 51°10.707 2°42.725 -999 3.268555 33.331257 -1.253181
2006-01-19 08:29:17 51°10.7 2°42.697 -999 3.268555 33.331257 -1.253181
2006-01-19 08:29:22 51°10.694 2°42.669 -999 3.267934 33.321408 -1.253181
2006-01-19 08:29:27 51°10.687 2°42.641 -999 3.269693 33.338466 -1.253181
2006-01-19 08:29:32 51°10.681 2°42.613 -999 3.270521 33.345937 -1.253181
2006-01-19 08:29:37 51°10.674 2°42.585 -999 3.268866 33.324391 -1.253181
2006-01-19 08:29:42 51°10.667 2°42.557 -999 3.271142 33.348238 -1.253181
2006-01-19 08:29:47 51°10.661 2°42.528 -999 3.270832 33.341899 -1.253181
2006-01-19 08:29:52 51°10.655 2°42.5 -999 3.270832 33.341899 -1.253181
2006-01-19 08:29:57 51°10.649 2°42.471 -999 3.271763 33.350538 -1.253181
2006-01-19 08:30:02 51°10.643 2°42.443 -999 3.272074 33.351217 -1.253181
2006-01-19 08:30:07 51°10.637 2°42.414 -999 3.271867 33.346048 -1.253181
2006-01-19 08:30:12 51°10.631 2°42.386 -999 3.272281 33.346953 -1.253181
2006-01-19 08:30:17 51°10.625 2°42.357 -999 3.272384 33.345293 -1.253181
2006-01-19 08:30:22 51°10.619 2°42.329 -999 3.272384 33.345293 -1.253181
2006-01-19 08:30:27 51°10.613 2°42.3 -999 3.272901 33.34831 -1.253181
2006-01-19 08:30:32 51°10.606 2°42.273 -999 3.273936 33.356228 -1.253181
2006-01-19 08:30:37 51°10.6 2°42.244 -999 3.274143 33.35668 -1.253181
2006-01-19 08:30:42 51°10.593 2°42.216 -999 3.275489 33.369048 -1.253181
2006-01-19 08:30:47 51°10.586 2°42.188 -999 3.276006 33.371119 -1.253181
2006-01-19 08:30:52 51°10.579 2°42.161 -999 3.276006 33.371119 -1.253181
2006-01-19 08:30:57 51°10.572 2°42.132 -999 3.276834 33.376697 -1.253181
2006-01-19 08:31:02 51°10.565 2°42.105 -999 3.278076 33.386948 -1.253181
2006-01-19 08:31:07 51°10.559 2°42.076 -999 3.278076 33.385061 -1.253181
2006-01-19 08:31:12 51°10.553 2°42.048 -999 3.277041 33.371489 -1.253181
2006-01-19 08:31:17 51°10.547 2°42.019 -999 3.277041 33.371489 -1.253181
2006-01-19 08:31:22 51°10.541 2°41.991 -999 3.276109 33.359088 -1.253181
2006-01-19 08:31:27 51°10.535 2°41.962 -999 3.273419 33.326828 -1.253181
2006-01-19 08:31:32 51°10.529 2°41.934 -999 3.273108 33.321441 -1.253181
2006-01-19 08:31:36 51°10.524 2°41.911 -999 3.272901 33.31534 -1.253181
2006-01-19 08:31:42 51°10.517 2°41.877 -999 3.273005 33.312744 -1.253181
2006-01-19 08:31:47 51°10.511 2°41.848 -999 3.273625 33.315987 -1.253181
2006-01-19 08:31:52 51°10.505 2°41.82 -999 3.273625 33.315987 -1.253181
2006-01-19 08:31:57 51°10.498 2°41.791 -999 3.276109 33.338366 -1.253181
2006-01-19 08:32:02 51°10.492 2°41.763 -999 3.277351 33.34673 -1.253181
2006-01-19 08:32:07 51°10.485 2°41.735 -999 3.27911 33.36187 -1.253181
2006-01-19 08:32:12 51°10.479 2°41.707 -999 3.27911 33.359045 -1.253181
2006-01-19 08:32:17 51°10.472 2°41.678 -999 3.281491 33.384012 -1.253181
2006-01-19 08:32:22 51°10.466 2°41.65 -999 3.281491 33.384012 -1.253181
2006-01-19 08:32:27 51°10.46 2°41.621 -999 3.281387 33.380019 -1.253181
2006-01-19 08:32:33 51°10.453 2°41.587 -999 3.282008 33.386081 -1.253181
2006-01-19 08:32:37 51°10.448 2°41.564 -999 3.281077 33.374633 -1.253181
2006-01-19 08:32:42 51°10.442 2°41.535 -999 3.280352 33.366462 -1.253181
2006-01-19 08:32:47 51°10.437 2°41.507 -999 3.279835 33.359685 -1.253181
2006-01-19 08:32:52 51°10.431 2°41.478 -999 3.279835 33.359685 -1.253181
2006-01-19 08:32:57 51°10.425 2°41.45 -999 3.279421 33.355017 -1.253181
2006-01-19 08:33:02 51°10.419 2°41.421 -999 3.278282 33.341238 -1.253181
2006-01-19 08:33:06 51°10.414 2°41.399 -999 3.278179 33.33913 -1.253181
2006-01-19 08:33:12 51°10.406 2°41.365 -999 3.280042 33.356373 -1.253181
2006-01-19 08:33:17 51°10.4 2°41.336 -999 3.280042 33.356373 -1.253181
2006-01-19 08:33:22 51°10.393 2°41.308 -999 3.281283 33.366612 -1.253181
2006-01-19 08:33:26 51°10.388 2°41.285 -999 3.282836 33.38035 -1.253181
2006-01-19 08:33:32 51°10.381 2°41.251 -999 3.283457 33.384526 -1.253181
2006-01-19 08:33:37 51°10.375 2°41.223 -999 3.282525 33.373084 -1.253181
2006-01-19 08:33:42 51°10.369 2°41.194 -999 3.280145 33.347192 -1.253181
2006-01-19 08:33:47 51°10.363 2°41.166 -999 3.281387 33.362132 -1.219471
2006-01-19 08:33:53 51°10.357 2°41.131 -999 3.281387 33.362132 -1.219471
2006-01-19 08:33:57 51°10.352 2°41.108 -999 3.279835 33.347454 -1.253181
2006-01-19 08:34:02 51°10.347 2°41.079 -999 3.277765 33.32412 -1.253181
2006-01-19 08:34:07 51°10.341 2°41.05 -999 3.277454 33.320621 -1.253181
2006-01-19 08:34:13 51°10.335 2°41.016 -999 3.275177 33.294957 -1.253181
2006-01-19 08:34:17 51°10.33 2°40.993 -999 3.276109 33.308274 -1.253181
2006-01-19 08:34:22 51°10.324 2°40.964 -999 3.276109 33.308274 -1.253181
2006-01-19 08:34:27 51°10.319 2°40.936 -999 3.274453 33.289609 -1.219471
2006-01-19 08:34:33 51°10.311 2°40.902 -999 3.271762 33.263973 -1.219471
2006-01-19 08:34:37 51°10.306 2°40.879 -999 3.267519 33.223648 -1.219471
2006-01-19 08:34:42 51°10.3 2°40.85 -999 3.262759 33.17561 -1.253181
2006-01-19 08:34:47 51°10.294 2°40.822 -999 3.262759 33.17561 -1.253181
2006-01-19 08:34:53 51°10.287 2°40.787 -999 3.260689 33.15696 -1.253181
2006-01-19 08:34:57 51°10.282 2°40.765 -999 3.260379 33.156268 -1.253181
2006-01-19 08:35:02 51°10.276 2°40.736 -999 3.258723 33.140409 -1.253181
2006-01-19 08:35:07 51°10.27 2°40.707 -999 3.256653 33.118948 -1.253181
2006-01-19 08:35:12 51°10.265 2°40.678 -999 3.254687 33.098654 -1.219471
2006-01-19 08:35:17 51°10.259 2°40.649 -999 3.252203 33.072527 -1.253181
2006-01-19 08:35:22 51°10.253 2°40.62 -999 3.252203 33.072527 -1.253181
2006-01-19 08:35:27 51°10.247 2°40.592 -999 3.248064 33.029605 -1.253181
2006-01-19 08:35:32 51°10.242 2°40.563 -999 3.246822 33.017474 -1.219471
2006-01-19 08:35:37 51°10.236 2°40.534 -999 3.246925 33.017708 -1.253181
2006-01-19 08:35:42 51°10.23 2°40.505 -999 3.250444 33.051765 -1.253181
2006-01-19 08:35:46 51°10.225 2°40.482 -999 3.250651 33.048499 -1.219471
2006-01-19 08:35:52 51°10.218 2°40.448 -999 3.250651 33.048499 -1.219471
2006-01-19 08:35:57 51°10.211 2°40.42 -999 3.256756 33.109833 -1.253181
2006-01-19 08:36:02 51°10.205 2°40.392 -999 3.259861 33.138275 -1.253181
2006-01-19 08:36:07 51°10.198 2°40.364 -999 3.262034 33.158087 -1.253181
2006-01-19 08:36:13 51°10.19 2°40.33 -999 3.263897 33.175334 -1.253181
2006-01-19 08:36:17 51°10.185 2°40.307 -999 3.266174 33.197243 -1.219471
2006-01-19 08:36:22 51°10.179 2°40.279 -999 3.266174 33.197243 -1.219471
2006-01-19 08:36:27 51°10.173 2°40.25 -999 3.266484 33.197932 -1.219471
2006-01-19 08:36:33 51°10.165 2°40.216 -999 3.266588 33.196289 -1.219471
2006-01-19 08:36:37 51°10.161 2°40.193 -999 3.269796 33.229624 -1.253181
2006-01-19 08:36:42 51°10.155 2°40.164 -999 3.270831 33.236598 -1.219471
2006-01-19 08:36:47 51°10.149 2°40.135 -999 3.270831 33.236598 -1.219471
2006-01-19 08:36:53 51°10.143 2°40.101 -999 3.271038 33.234244 -1.253181
2006-01-19 08:36:57 51°10.138 2°40.078 -999 3.27704 33.295296 -1.253181
2006-01-19 08:37:02 51°10.132 2°40.049 -999 3.281801 33.343292 -1.219471
2006-01-19 08:37:07 51°10.126 2°40.02 -999 3.285526 33.377743 -1.219471
2006-01-19 08:37:12 51°10.12 2°39.992 -999 3.289873 33.421065 -1.219471
2006-01-19 08:37:17 51°10.113 2°39.963 -999 3.292357 33.442454 -1.219471
2006-01-19 08:37:22 51°10.107 2°39.935 -999 3.292357 33.442454 -1.219471
2006-01-19 08:37:27 51°10.101 2°39.906 -999 3.295048 33.467112 -1.219471
2006-01-19 08:37:32 51°10.095 2°39.878 -999 3.297635 33.491543 -1.219471
2006-01-19 08:37:37 51°10.088 2°39.849 -999 3.299084 33.505034 -1.253181
2006-01-19 08:37:42 51°10.082 2°39.821 -999 3.300636 33.51969 -1.219471
2006-01-19 08:37:47 51°10.076 2°39.792 -999 3.300636 33.518746 -1.219471
2006-01-19 08:37:52 51°10.07 2°39.763 -999 3.300636 33.518746 -1.219471
2006-01-19 08:37:57 51°10.064 2°39.734 -999 3.296911 33.476785 -1.219471
2006-01-19 08:38:02 51°10.058 2°39.705 -999 3.299601 33.508033 -1.219471
2006-01-19 08:38:06 51°10.054 2°39.682 -999 3.299808 33.510364 -1.219471
2006-01-19 08:38:12 51°10.047 2°39.648 -999 3.299705 33.508255 -1.219471
2006-01-19 08:38:17 51°10.041 2°39.619 -999 3.299705 33.508255 -1.219471
2006-01-19 08:38:22 51°10.035 2°39.59 -999 3.297325 33.479562 -1.219471
2006-01-19 08:38:27 51°10.029 2°39.561 -999 3.30074 33.516138 -1.219471
2006-01-19 08:38:33 51°10.021 2°39.527 -999 3.301775 33.524964 -1.219471
2006-01-19 08:38:37 51°10.016 2°39.504 -999 3.300843 33.513531 -1.219471
2006-01-19 08:38:42 51°10.01 2°39.475 -999 3.301775 33.523077 -1.219471
2006-01-19 08:38:47 51°10.004 2°39.446 -999 3.300015 33.503265 -1.219471
2006-01-19 08:38:53 51°9.996 2°39.411 -999 3.300015 33.503265 -1.219471
2006-01-19 08:38:57 51°9.992 2°39.388 -999 3.301568 33.519803 -1.219471
2006-01-19 08:39:02 51°9.986 2°39.359 -999 3.30105 33.513033 -1.219471
2006-01-19 08:39:07 51°9.98 2°39.33 -999 3.29898 33.490669 -1.219471
2006-01-19 08:39:12 51°9.974 2°39.302 -999 3.299291 33.495107 -1.219471
2006-01-19 08:39:17 51°9.969 2°39.273 -999 3.298566 33.487893 -1.219471
2006-01-19 08:39:22 51°9.963 2°39.243 -999 3.298566 33.487893 -1.219471
2006-01-19 08:39:26 51°9.959 2°39.22 -999 3.297324 33.474852 -1.219471
2006-01-19 08:39:32 51°9.952 2°39.186 -999 3.297117 33.471579 -1.219471
2006-01-19 08:39:37 51°9.946 2°39.156 -999 3.294116 33.436849 -1.219471
2006-01-19 08:39:42 51°9.94 2°39.128 -999 3.296289 33.461316 -1.219471
2006-01-19 08:39:46 51°9.935 2°39.104 -999 3.296807 33.465258 -1.219471
2006-01-19 08:39:52 51°9.928 2°39.069 -999 3.296807 33.465258 -1.219471
2006-01-19 08:39:57 51°9.922 2°39.041 -999 3.297014 33.466647 -1.219471
2006-01-19 08:40:02 51°9.916 2°39.012 -999 3.296186 33.457326 -1.219471
2006-01-19 08:40:06 51°9.911 2°38.989 -999 3.295979 33.45782 -1.219471
2006-01-19 08:40:12 51°9.904 2°38.954 -999 3.29453 33.445274 -1.219471
2006-01-19 08:40:17 51°9.898 2°38.925 -999 3.29453 33.445274 -1.219471
2006-01-19 08:40:22 51°9.892 2°38.896 -999 3.291425 33.418786 -1.219471
2006-01-19 08:40:27 51°9.886 2°38.867 -999 3.286975 33.3762 -1.219471
2006-01-19 08:40:32 51°9.881 2°38.838 -999 3.285423 33.368117 -1.219471
2006-01-19 08:40:37 51°9.876 2°38.808 -999 3.282939 33.34578 -1.219471
2006-01-19 08:40:42 51°9.87 2°38.779 -999 3.281076 33.330434 -1.219471
2006-01-19 08:40:46 51°9.866 2°38.756 -999 3.279731 33.320914 -1.219471
2006-01-19 08:40:51 51°9.86 2°38.726 -999 3.279731 33.320914 -1.219471
2006-01-19 08:40:57 51°9.853 2°38.691 -999 3.278696 33.313011 -1.219471
2006-01-19 08:41:02 51°9.847 2°38.663 -999 3.278385 33.311391 -1.219471
2006-01-19 08:41:07 51°9.841 2°38.634 -999 3.27911 33.319553 -1.219471
2006-01-19 08:41:12 51°9.834 2°38.605 -999 3.278799 33.315116 -1.219471
2006-01-19 08:41:17 51°9.828 2°38.576 -999 3.280041 33.327229 -1.219471
2006-01-19 08:41:22 51°9.822 2°38.547 -999 3.280041 33.327229 -1.219471
2006-01-19 08:41:27 51°9.816 2°38.518 -999 3.279627 33.320687 -1.219471
2006-01-19 08:41:33 51°9.809 2°38.483 -999 3.279938 33.324184 -1.219471
2006-01-19 08:41:37 51°9.804 2°38.46 -999 3.27942 33.317416 -1.219471
2006-01-19 08:41:42 51°9.799 2°38.43 -999 3.278799 33.31136 -1.219471
2006-01-19 08:41:47 51°9.793 2°38.401 -999 3.277764 33.298764 -1.219471
2006-01-19 08:41:52 51°9.787 2°38.371 -999 3.277764 33.298764 -1.219471
2006-01-19 08:41:57 51°9.782 2°38.342 -999 3.27704 33.289666 -1.219471
2006-01-19 08:42:02 51°9.776 2°38.312 -999 3.276212 33.275653 -1.219471
2006-01-19 08:42:06 51°9.772 2°38.289 -999 3.27911 33.299843 -1.219471
2006-01-19 08:42:13 51°9.764 2°38.247 -999 3.280248 33.304219 -1.219471
2006-01-19 08:42:17 51°9.759 2°38.224 -999 3.280144 33.295553 -1.219471
2006-01-19 08:42:22 51°9.753 2°38.196 -999 3.280144 33.295553 -1.219471
2006-01-19 08:42:27 51°9.746 2°38.167 -999 3.282732 33.318108 -1.219471
2006-01-19 08:42:32 51°9.74 2°38.138 -999 3.284284 33.330889 -1.219471
2006-01-19 08:42:37 51°9.734 2°38.109 -999 3.282421 33.304303 -1.219471
2006-01-19 08:42:42 51°9.728 2°38.08 -999 3.285629 33.337585 -1.219471
2006-01-19 08:42:48 51°9.721 2°38.045 -999 3.285836 33.3371 -1.219471
2006-01-19 08:42:52 51°9.716 2°38.022 -999 3.285836 33.3371 -1.219471
2006-01-19 08:42:57 51°9.71 2°37.993 -999 3.28625 33.338944 -1.219471
2006-01-19 08:43:02 51°9.705 2°37.964 -999 3.287078 33.34263 -1.219471
2006-01-19 08:43:07 51°9.699 2°37.935 -999 3.287492 33.339785 -1.219471
2006-01-19 08:43:12 51°9.693 2°37.905 -999 3.292977 33.388334 -1.219471
2006-01-19 08:43:17 51°9.687 2°37.876 -999 3.295875 33.404958 -1.219471
2006-01-19 08:43:22 51°9.681 2°37.847 -999 3.295875 33.404958 -1.219471
2006-01-19 08:43:26 51°9.676 2°37.823 -999 3.301257 33.446666 -1.219471
2006-01-19 08:43:33 51°9.667 2°37.783 -999 3.3055 33.474616 -1.219471
2006-01-19 08:43:37 51°9.663 2°37.759 -999 3.30757 33.480958 -1.219471
2006-01-19 08:43:42 51°9.656 2°37.731 -999 3.31202 33.516831 -1.219471
2006-01-19 08:43:47 51°9.65 2°37.702 -999 3.31202 33.516831 -1.219471
2006-01-19 08:43:53 51°9.643 2°37.666 -999 3.314504 33.533436 -1.219471
2006-01-19 08:43:57 51°9.638 2°37.643 -999 3.316056 33.540522 -1.219471
2006-01-19 08:44:02 51°9.632 2°37.613 -999 3.317816 33.552745 -1.219471
2006-01-19 08:44:07 51°9.626 2°37.584 -999 3.319472 33.560985 -1.219471
2006-01-19 08:44:12 51°9.621 2°37.555 -999 3.322163 33.582707 -1.219471
2006-01-19 08:44:17 51°9.615 2°37.526 -999 3.323611 33.589556 -1.219471
2006-01-19 08:44:22 51°9.609 2°37.497 -999 3.323611 33.589556 -1.219471
2006-01-19 08:44:27 51°9.603 2°37.468 -999 3.323611 33.580161 -1.219471
2006-01-19 08:44:32 51°9.597 2°37.439 -999 3.324957 33.58491 -1.219471
2006-01-19 08:44:37 51°9.591 2°37.409 -999 3.327855 33.603293 -1.219471
2006-01-19 08:44:42 51°9.584 2°37.38 -999 3.330442 33.61631 -1.219471
2006-01-19 08:44:47 51°9.578 2°37.351 -999 3.332202 33.621927 -1.219471
2006-01-19 08:44:52 51°9.572 2°37.321 -999 3.332202 33.621927 -1.219471
2006-01-19 08:44:57 51°9.566 2°37.292 -999 3.336859 33.65528 -1.219471
2006-01-19 08:45:02 51°9.56 2°37.263 -999 3.340378 33.674931 -1.219471
2006-01-19 08:45:07 51°9.554 2°37.234 -999 3.344208 33.694283 -1.219471
2006-01-19 08:45:12 51°9.547 2°37.206 -999 3.346795 33.702553 -1.219471
2006-01-19 08:45:17 51°9.541 2°37.176 -999 3.348762 33.70482 -1.219471
2006-01-19 08:45:22 51°9.534 2°37.147 -999 3.348762 33.70482 -1.219471
2006-01-19 08:45:27 51°9.528 2°37.119 -999 3.349796 33.692938 -1.219471
2006-01-19 08:45:33 51°9.521 2°37.083 -999 3.357042 33.753174 -1.219471
2006-01-19 08:45:37 51°9.516 2°37.06 -999 3.359215 33.757728 -1.219471
2006-01-19 08:45:42 51°9.51 2°37.031 -999 3.36377 33.790697 -1.219471
2006-01-19 08:45:47 51°9.504 2°37.001 -999 3.36377 33.790697 -1.219471
2006-01-19 08:45:52 51°9.498 2°36.972 -999 3.36615 33.799417 -1.219471
2006-01-19 08:45:57 51°9.492 2°36.943 -999 3.369566 33.817786 -1.253181
2006-01-19 08:46:02 51°9.486 2°36.913 -999 3.369773 33.80416 -1.219471
2006-01-19 08:46:07 51°9.48 2°36.884 -999 3.373913 33.832454 -1.219471
2006-01-19 08:46:13 51°9.473 2°36.849 -999 3.376294 33.842085 -1.219471
2006-01-19 08:46:17 51°9.468 2°36.825 -999 3.378571 33.854305 -1.219471
2006-01-19 08:46:22 51°9.462 2°36.796 -999 3.378571 33.854305 -1.219471
2006-01-19 08:46:27 51°9.456 2°36.767 -999 3.38002 33.86012 -1.219471
2006-01-19 08:46:32 51°9.449 2°36.738 -999 3.381366 33.865718 -1.219471
2006-01-19 08:46:37 51°9.443 2°36.708 -999 3.381055 33.855712 -1.219471
2006-01-19 08:46:42 51°9.437 2°36.679 -999 3.384264 33.884827 -1.253181
2006-01-19 08:46:47 51°9.431 2°36.65 -999 3.384988 33.886325 -1.253181
2006-01-19 08:46:52 51°9.424 2°36.621 -999 3.384988 33.886325 -1.253181
2006-01-19 08:46:57 51°9.418 2°36.592 -999 3.384781 33.879343 -1.219471
2006-01-19 08:47:02 51°9.411 2°36.563 -999 3.387266 33.902267 -1.253181
2006-01-19 08:47:08 51°9.404 2°36.528 -999 3.387473 33.898948 -1.253181
2006-01-19 08:47:12 51°9.399 2°36.504 -999 3.387887 33.900739 -1.253181
2006-01-19 08:47:17 51°9.393 2°36.475 -999 3.388508 33.903894 -1.253181
2006-01-19 08:47:22 51°9.386 2°36.446 -999 3.388508 33.903894 -1.253181
2006-01-19 08:47:27 51°9.38 2°36.416 -999 3.389646 33.913733 -1.253181
2006-01-19 08:47:33 51°9.372 2°36.381 -999 3.388611 33.89849 -1.219471
2006-01-19 08:47:37 51°9.367 2°36.358 -999 3.386541 33.872693 -1.253181
2006-01-19 08:47:42 51°9.361 2°36.328 -999 3.390475 33.916376 -1.253181
2006-01-19 08:47:47 51°9.355 2°36.299 -999 3.388611 33.89849 -1.253181
2006-01-19 08:47:53 51°9.347 2°36.264 -999 3.388611 33.89849 -1.253181
2006-01-19 08:47:57 51°9.342 2°36.24 -999 3.388715 33.906193 -1.253181
2006-01-19 08:48:02 51°9.336 2°36.211 -999 3.387162 33.895498 -1.253181
2006-01-19 08:48:07 51°9.33 2°36.181 -999 3.386541 33.896088 -1.253181
2006-01-19 08:48:12 51°9.324 2°36.152 -999 3.384885 33.882366 -1.253181
2006-01-19 08:48:17 51°9.317 2°36.123 -999 3.38592 33.896679 -1.253181
2006-01-19 08:48:22 51°9.311 2°36.093 -999 3.38592 33.896679 -1.253181
2006-01-19 08:48:26 51°9.306 2°36.069 -999 3.386438 33.903369 -1.253181
2006-01-19 08:48:32 51°9.299 2°36.034 -999 3.386438 33.902432 -1.253181
2006-01-19 08:48:37 51°9.293 2°36.004 -999 3.387162 33.909548 -1.253181
2006-01-19 08:48:42 51°9.287 2°35.975 -999 3.387266 33.909762 -1.253181
2006-01-19 08:48:46 51°9.282 2°35.951 -999 3.387059 33.907461 -1.253181
2006-01-19 08:48:52 51°9.276 2°35.915 -999 3.387059 33.907461 -1.253181
2006-01-19 08:48:57 51°9.27 2°35.885 -999 3.387576 33.913213 -1.253181
2006-01-19 08:49:02 51°9.264 2°35.856 -999 3.386852 33.906097 -1.253181
2006-01-19 08:49:06 51°9.26 2°35.832 -999 3.386852 33.907971 -1.253181
2006-01-19 08:49:12 51°9.253 2°35.796 -999 3.385713 33.896252 -1.253181
2006-01-19 08:49:17 51°9.247 2°35.766 -999 3.385713 33.896252 -1.253181
2006-01-19 08:49:22 51°9.241 2°35.737 -999 3.386127 33.903665 -1.253181
2006-01-19 08:49:27 51°9.235 2°35.707 -999 3.384782 33.891517 -1.253181
2006-01-19 08:49:32 51°9.229 2°35.678 -999 3.385196 33.899868 -1.253181
2006-01-19 08:49:37 51°9.223 2°35.648 -999 3.383436 33.882178 -1.253181
2006-01-19 08:49:42 51°9.217 2°35.618 -999 3.384575 33.897649 -1.253181
2006-01-19 08:49:46 51°9.213 2°35.595 -999 3.384264 33.895133 -1.253181
2006-01-19 08:49:51 51°9.207 2°35.565 -999 3.384264 33.895133 -1.253181
2006-01-19 08:49:57 51°9.2 2°35.53 -999 3.384471 33.897435 -1.253181
2006-01-19 08:50:02 51°9.194 2°35.5 -999 3.385092 33.903404 -1.253181
2006-01-19 08:50:07 51°9.189 2°35.471 -999 3.385196 33.90268 -1.253181
2006-01-19 08:50:12 51°9.183 2°35.442 -999 3.38561 33.906346 -1.253181
2006-01-19 08:50:17 51°9.177 2°35.412 -999 3.385817 33.908648 -1.253181
2006-01-19 08:50:22 51°9.171 2°35.383 -999 3.385817 33.908648 -1.253181
2006-01-19 08:50:26 51°9.167 2°35.359 -999 3.386438 33.912741 -1.253181
2006-01-19 08:50:32 51°9.16 2°35.324 -999 3.386127 33.909288 -1.253181
2006-01-19 08:50:37 51°9.154 2°35.294 -999 3.386852 33.917344 -1.253181
2006-01-19 08:50:42 51°9.149 2°35.265 -999 3.387162 33.919859 -1.253181
2006-01-19 08:50:47 51°9.143 2°35.235 -999 3.387577 33.925401 -1.253181
2006-01-19 08:50:52 51°9.137 2°35.206 -999 3.387577 33.925401 -1.253181
2006-01-19 08:50:57 51°9.131 2°35.176 -999 3.387577 33.926339 -1.253181
2006-01-19 08:51:02 51°9.125 2°35.147 -999 3.38768 33.92749 -1.219471
2006-01-19 08:51:07 51°9.12 2°35.118 -999 3.38768 33.92749 -1.253181
2006-01-19 08:51:13 51°9.112 2°35.082 -999 3.386852 33.920158 -1.253181
2006-01-19 08:51:17 51°9.107 2°35.059 -999 3.387059 33.924335 -1.219471
2006-01-19 08:51:22 51°9.101 2°35.03 -999 3.387059 33.924335 -1.219471
2006-01-19 08:51:27 51°9.095 2°35 -999 3.386748 33.922758 -1.219471
2006-01-19 08:51:32 51°9.089 2°34.971 -999 3.386645 33.922545 -1.219471
2006-01-19 08:51:37 51°9.083 2°34.941 -999 3.386438 33.922119 -1.253181
2006-01-19 08:51:42 51°9.078 2°34.912 -999 3.386127 33.920541 -1.219471
2006-01-19 08:51:46 51°9.073 2°34.888 -999 3.386127 33.921479 -1.219471
2006-01-19 08:51:52 51°9.067 2°34.853 -999 3.386127 33.921479 -1.219471
2006-01-19 08:51:57 51°9.061 2°34.823 -999 3.38592 33.920115 -1.219471
2006-01-19 08:52:02 51°9.056 2°34.794 -999 3.38561 33.916661 -1.219471
2006-01-19 08:52:06 51°9.051 2°34.77 -999 3.385506 33.914572 -1.219471
2006-01-19 08:52:12 51°9.045 2°34.735 -999 3.384885 33.906727 -1.219471
2006-01-19 08:52:17 51°9.039 2°34.706 -999 3.385817 33.91615 -1.219471
2006-01-19 08:52:22 51°9.033 2°34.676 -999 3.385817 33.91615 -1.219471
2006-01-19 08:52:26 51°9.028 2°34.653 -999 3.38592 33.916363 -1.219471
2006-01-19 08:52:32 51°9.021 2°34.617 -999 3.38592 33.916363 -1.219471
2006-01-19 08:52:37 51°9.016 2°34.588 -999 3.385506 33.910821 -1.219471
2006-01-19 08:52:42 51°9.01 2°34.559 -999 3.38592 33.915425 -1.219471
2006-01-19 08:52:47 51°9.005 2°34.529 -999 3.38592 33.915425 -1.219471
2006-01-19 08:52:52 51°9 2°34.5 -999 3.38561 33.912909 -1.219471
2006-01-19 08:52:57 51°8.996 2°34.47 -999 3.386127 33.917727 -1.219471
2006-01-19 08:53:02 51°8.991 2°34.44 -999 3.385299 33.908518 -1.219471
2006-01-19 08:53:07 51°8.986 2°34.411 -999 3.386024 33.916576 -1.219471
2006-01-19 08:53:13 51°8.981 2°34.375 -999 3.38561 33.911972 -1.219471
2006-01-19 08:53:17 51°8.976 2°34.351 -999 3.385299 33.910394 -1.219471
2006-01-19 08:53:22 51°8.972 2°34.322 -999 3.385299 33.910394 -1.219471
2006-01-19 08:53:27 51°8.967 2°34.292 -999 3.385713 33.915936 -1.219471
2006-01-19 08:53:32 51°8.962 2°34.262 -999 3.385713 33.919688 -1.219471
2006-01-19 08:53:37 51°8.957 2°34.233 -999 3.385196 33.915808 -1.219471
2006-01-19 08:53:42 51°8.951 2°34.203 -999 3.385092 33.918409 -1.219471
2006-01-19 08:53:47 51°8.946 2°34.173 -999 3.385403 33.923741 -1.219471
2006-01-19 08:53:52 51°8.941 2°34.144 -999 3.385403 33.923741 -1.219471
2006-01-19 08:53:57 51°8.936 2°34.114 -999 3.385403 33.925618 -1.219471
2006-01-19 08:54:02 51°8.931 2°34.085 -999 3.385506 33.929586 -1.219471
2006-01-19 08:54:07 51°8.927 2°34.055 -999 3.385196 33.927069 -1.219471
2006-01-19 08:54:12 51°8.922 2°34.025 -999 3.384782 33.924339 -1.219471
2006-01-19 08:54:17 51°8.917 2°33.996 -999 3.384782 33.927156 -1.219471
2006-01-19 08:54:22 51°8.912 2°33.966 -999 3.384782 33.927156 -1.219471
2006-01-19 08:54:26 51°8.908 2°33.943 -999 3.385092 33.931551 -1.219471
2006-01-19 08:54:33 51°8.902 2°33.906 -999 3.384989 33.931338 -1.219471
2006-01-19 08:54:37 51°8.899 2°33.886 -999 3.384885 33.931125 -1.219471
2006-01-19 08:54:42 51°8.895 2°33.864 -999 3.384782 33.930912 -1.219471
2006-01-19 08:54:47 51°8.892 2°33.842 -999 3.384782 33.930912 -1.219471
2006-01-19 08:54:52 51°8.889 2°33.822 -999 3.385093 33.934368 -1.219471
2006-01-19 08:54:57 51°8.888 2°33.803 -999 3.384678 33.928821 -1.219471
2006-01-19 08:55:02 51°8.887 2°33.785 -999 3.385196 33.934581 -1.219471
2006-01-19 08:55:07 51°8.888 2°33.768 -999 3.385093 33.934368 -1.253181
2006-01-19 08:55:12 51°8.89 2°33.751 -999 3.3853 33.937611 -1.219471
2006-01-19 08:55:18 51°8.893 2°33.732 -999 3.38561 33.940128 -1.219471
2006-01-19 08:55:22 51°8.897 2°33.72 -999 3.38561 33.940128 -1.219471
2006-01-19 08:55:27 51°8.903 2°33.706 -999 3.385817 33.941493 -1.219471
2006-01-19 08:55:32 51°8.91 2°33.695 -999 3.38561 33.939189 -1.219471
2006-01-19 08:55:37 51°8.918 2°33.685 -999 3.385507 33.937098 -1.219471
2006-01-19 08:55:42 51°8.927 2°33.678 -999 3.385092 33.930612 -1.219471
2006-01-19 08:55:47 51°8.936 2°33.673 -999 3.38561 33.935432 -1.219471
2006-01-19 08:55:52 51°8.945 2°33.671 -999 3.38561 33.935432 -1.219471
2006-01-19 08:55:57 51°8.954 2°33.671 -999 3.385507 33.933341 -1.253181
2006-01-19 08:56:02 51°8.963 2°33.674 -999 3.385507 33.932402 -1.219471
2006-01-19 08:56:07 51°8.971 2°33.678 -999 3.385092 33.926856 -1.219471
2006-01-19 08:56:12 51°8.978 2°33.685 -999 3.383643 33.910732 -1.219471
2006-01-19 08:56:17 51°8.985 2°33.693 -999 3.383643 33.910732 -1.219471
2006-01-19 08:56:23 51°8.991 2°33.706 -999 3.381366 33.88352 -1.219471
2006-01-19 08:56:27 51°8.994 2°33.715 -999 3.378778 33.852861 -1.219471
2006-01-19 08:56:32 51°8.996 2°33.727 -999 3.374741 33.806094 -1.253181
2006-01-19 08:56:37 51°8.996 2°33.739 -999 3.372567 33.778186 -1.253181
2006-01-19 08:56:43 51°8.995 2°33.754 -999 3.373602 33.78689 -1.219471
2006-01-19 08:56:47 51°8.993 2°33.764 -999 3.373499 33.782002 -1.253181
2006-01-19 08:56:52 51°8.989 2°33.775 -999 3.373499 33.782002 -1.253181
2006-01-19 08:56:57 51°8.984 2°33.787 -999 3.372981 33.77158 -1.253181
2006-01-19 08:57:02 51°8.979 2°33.798 -999 3.368323 33.708633 -1.253181
2006-01-19 08:57:07 51°8.973 2°33.81 -999 3.368323 33.703044 -1.219471
2006-01-19 08:57:13 51°8.967 2°33.825 -999 3.372463 33.754628 -1.253181
2006-01-19 08:57:18 51°8.963 2°33.839 -999 3.37619 33.805375 -1.253181
2006-01-19 08:57:22 51°8.961 2°33.85 -999 3.37619 33.805375 -1.253181
2006-01-19 08:57:26 51°8.959 2°33.86 -999 3.378674 33.842347 -1.219471
2006-01-19 08:57:32 51°8.958 2°33.875 -999 3.38209 33.888768 -1.253181